Time,TemperatureF,DewpointF,PressureIn,WindDirection,WindDirectionDegrees,WindSpeedMPH,WindSpeedGustMPH,Humidity,HourlyPrecipIn,Conditions,Clouds,dailyrainin,SoftwareType,DateUTC
2013-03-02 00:00:00,55.9,41.4,30.06,East,90,3.0,5.0,58,0.00,,,0.00,meteohub,2013-03-02 05:00:00,
2013-03-02 00:01:00,55.9,41.4,30.06,NW,315,3.0,4.0,58,0.00,,,0.00,meteohub,2013-03-02 05:01:00,
2013-03-02 00:02:00,55.9,41.4,30.06,NW,315,3.0,4.0,58,0.00,,,0.00,meteohub,2013-03-02 05:02:00,
2013-03-02 00:05:00,55.9,41.0,30.06,West,270,2.0,4.0,57,0.00,,,0.00,meteohub,2013-03-02 05:05:00,
2013-03-02 00:07:00,55.9,41.0,30.07,SE,135,4.0,4.0,57,0.00,,,0.00,meteohub,2013-03-02 05:07:00,
2013-03-02 00:08:00,55.9,41.0,30.07,NE,45,4.0,4.0,57,0.00,,,0.00,meteohub,2013-03-02 05:08:00,
2013-03-02 00:12:00,55.9,41.0,30.07,NW,315,2.0,4.0,57,0.00,,,0.00,meteohub,2013-03-02 05:12:00,
2013-03-02 00:13:00,55.9,41.0,30.07,NW,315,2.0,4.0,57,0.00,,,0.00,meteohub,2013-03-02 05:13:00,
2013-03-02 00:17:00,55.9,40.5,30.06,NW,315,3.0,5.0,56,0.00,,,0.00,meteohub,2013-03-02 05:17:00,
2013-03-02 00:18:00,55.9,40.5,30.06,NW,315,2.0,5.0,56,0.00,,,0.00,meteohub,2013-03-02 05:18:00,
2013-03-02 00:21:00,55.9,40.5,30.07,North,0,4.0,5.0,56,0.00,,,0.00,meteohub,2013-03-02 05:21:00,
2013-03-02 00:26:00,55.9,39.9,30.07,NW,315,4.0,5.0,55,0.00,,,0.00,meteohub,2013-03-02 05:26:00,
2013-03-02 00:27:00,55.9,39.9,30.07,West,270,4.0,5.0,55,0.00,,,0.00,meteohub,2013-03-02 05:27:00,
2013-03-02 00:28:00,55.9,39.9,30.07,North,0,2.0,5.0,55,0.00,,,0.00,meteohub,2013-03-02 05:28:00,
2013-03-02 00:30:00,55.9,39.9,30.07,NW,315,2.0,4.0,55,0.00,,,0.00,meteohub,2013-03-02 05:30:00,
2013-03-02 00:31:00,55.9,39.9,30.06,NW,315,8.0,8.0,55,0.00,,,0.00,meteohub,2013-03-02 05:31:00,
2013-03-02 00:32:00,55.9,39.9,30.06,SW,225,4.0,4.0,55,0.00,,,0.00,meteohub,2013-03-02 05:32:00,
2013-03-02 00:35:00,55.9,39.9,30.06,North,0,4.0,8.0,55,0.00,,,0.00,meteohub,2013-03-02 05:35:00,
2013-03-02 00:37:00,55.9,39.9,30.06,NNW,338,6.0,8.0,55,0.00,,,0.00,meteohub,2013-03-02 05:37:00,
2013-03-02 00:38:00,55.9,39.6,30.06,West,270,2.0,8.0,54,0.00,,,0.00,meteohub,2013-03-02 05:38:00,
2013-03-02 00:41:00,55.9,39.6,30.06,NW,315,3.0,8.0,54,0.00,,,0.00,meteohub,2013-03-02 05:41:00,
2013-03-02 00:42:00,55.9,39.6,30.06,NW,315,2.0,8.0,54,0.00,,,0.00,meteohub,2013-03-02 05:42:00,
2013-03-02 00:43:00,55.9,39.9,30.07,North,0,2.0,8.0,55,0.00,,,0.00,meteohub,2013-03-02 05:43:00,
2013-03-02 00:44:00,55.9,39.9,30.06,South,180,2.0,8.0,55,0.00,,,0.00,meteohub,2013-03-02 05:44:00,
2013-03-02 00:47:00,55.9,39.9,30.06,North,0,5.0,8.0,55,0.00,,,0.00,meteohub,2013-03-02 05:47:00,
2013-03-02 00:48:00,55.8,39.4,30.06,North,0,1.0,8.0,54,0.00,,,0.00,meteohub,2013-03-02 05:48:00,
2013-03-02 00:49:00,55.8,39.4,30.06,West,270,3.0,8.0,54,0.00,,,0.00,meteohub,2013-03-02 05:49:00,
2013-03-02 00:52:00,55.8,39.4,30.06,NW,315,2.0,8.0,54,0.00,,,0.00,meteohub,2013-03-02 05:52:00,
2013-03-02 00:53:00,55.8,39.4,30.07,North,0,4.0,8.0,54,0.00,,,0.00,meteohub,2013-03-02 05:53:00,
2013-03-02 00:55:00,55.8,39.4,30.06,South,180,3.0,8.0,54,0.00,,,0.00,meteohub,2013-03-02 05:55:00,
2013-03-02 00:56:00,55.8,39.4,30.06,North,0,2.0,8.0,54,0.00,,,0.00,meteohub,2013-03-02 05:56:00,
2013-03-02 00:58:00,55.8,39.9,30.06,East,90,2.0,8.0,55,0.00,,,0.00,meteohub,2013-03-02 05:58:00,
2013-03-02 01:01:00,55.8,39.9,30.06,North,0,3.0,8.0,55,0.00,,,0.00,meteohub,2013-03-02 06:01:00,
2013-03-02 01:02:00,55.8,39.9,30.07,NW,315,2.0,8.0,55,0.00,,,0.00,meteohub,2013-03-02 06:02:00,
2013-03-02 01:03:00,55.8,39.9,30.06,NW,315,2.0,8.0,55,0.00,,,0.00,meteohub,2013-03-02 06:03:00,
2013-03-02 01:05:00,55.8,39.9,30.06,North,0,2.0,4.0,55,0.00,,,0.00,meteohub,2013-03-02 06:05:00,
2013-03-02 01:06:00,55.8,39.9,30.06,North,0,2.0,4.0,55,0.00,,,0.00,meteohub,2013-03-02 06:06:00,
2013-03-02 01:08:00,55.8,39.9,30.06,NW,315,2.0,4.0,55,0.00,,,0.00,meteohub,2013-03-02 06:08:00,
2013-03-02 01:09:00,55.8,39.9,30.06,North,0,2.0,4.0,55,0.00,,,0.00,meteohub,2013-03-02 06:09:00,
2013-03-02 01:10:00,55.8,39.9,30.06,NE,45,2.0,3.0,55,0.00,,,0.00,meteohub,2013-03-02 06:10:00,
2013-03-02 01:11:00,55.8,40.3,30.06,NW,315,2.0,3.0,56,0.00,,,0.00,meteohub,2013-03-02 06:11:00,
2013-03-02 01:15:00,55.8,40.3,30.06,NW,315,2.0,3.0,56,0.00,,,0.00,meteohub,2013-03-02 06:15:00,
2013-03-02 01:16:00,55.6,40.1,30.06,NE,45,4.0,4.0,56,0.00,,,0.00,meteohub,2013-03-02 06:16:00,
2013-03-02 01:17:00,55.6,40.1,30.06,NW,315,3.0,3.0,56,0.00,,,0.00,meteohub,2013-03-02 06:17:00,
2013-03-02 01:20:00,55.6,40.1,30.06,NW,315,3.0,4.0,56,0.00,,,0.00,meteohub,2013-03-02 06:20:00,
2013-03-02 01:22:00,55.6,40.6,30.06,North,0,2.0,4.0,57,0.00,,,0.00,meteohub,2013-03-02 06:22:00,
2013-03-02 01:23:00,55.6,40.6,30.05,NW,315,2.0,4.0,57,0.00,,,0.00,meteohub,2013-03-02 06:23:00,
2013-03-02 01:24:00,55.6,40.6,30.06,NW,315,2.0,4.0,57,0.00,,,0.00,meteohub,2013-03-02 06:24:00,
2013-03-02 01:25:00,55.6,40.6,30.06,NW,315,2.0,4.0,57,0.00,,,0.00,meteohub,2013-03-02 06:25:00,
2013-03-02 01:27:00,55.6,40.6,30.06,North,0,2.0,4.0,57,0.00,,,0.00,meteohub,2013-03-02 06:27:00,
2013-03-02 01:28:00,55.4,40.5,30.06,NW,315,2.0,4.0,57,0.00,,,0.00,meteohub,2013-03-02 06:28:00,
2013-03-02 01:29:00,55.4,40.5,30.06,North,0,2.0,4.0,57,0.00,,,0.00,meteohub,2013-03-02 06:29:00,
2013-03-02 01:32:00,55.4,40.5,30.06,NW,315,4.0,4.0,57,0.00,,,0.00,meteohub,2013-03-02 06:32:00,
2013-03-02 01:33:00,55.4,40.5,30.06,NW,315,3.0,4.0,57,0.00,,,0.00,meteohub,2013-03-02 06:33:00,
2013-03-02 01:34:00,55.4,40.5,30.06,North,0,4.0,4.0,57,0.00,,,0.00,meteohub,2013-03-02 06:34:00,
2013-03-02 01:35:00,55.4,40.5,30.06,North,0,3.0,4.0,57,0.00,,,0.00,meteohub,2013-03-02 06:35:00,
2013-03-02 01:38:00,55.4,40.5,30.06,NE,45,2.0,4.0,57,0.00,,,0.00,meteohub,2013-03-02 06:38:00,
2013-03-02 01:40:00,55.4,40.5,30.06,NE,45,4.0,4.0,57,0.00,,,0.00,meteohub,2013-03-02 06:40:00,
2013-03-02 01:41:00,55.4,40.5,30.06,North,0,4.0,4.0,57,0.00,,,0.00,meteohub,2013-03-02 06:41:00,
2013-03-02 01:44:00,55.4,40.5,30.06,NE,45,2.0,4.0,57,0.00,,,0.00,meteohub,2013-03-02 06:44:00,
2013-03-02 01:45:00,55.4,40.5,30.06,NW,315,2.0,4.0,57,0.00,,,0.00,meteohub,2013-03-02 06:45:00,
2013-03-02 01:46:00,55.4,40.5,30.06,NW,315,3.0,4.0,57,0.00,,,0.00,meteohub,2013-03-02 06:46:00,
2013-03-02 01:47:00,55.4,40.5,30.05,North,0,4.0,4.0,57,0.00,,,0.00,meteohub,2013-03-02 06:47:00,
2013-03-02 01:50:00,55.4,40.5,30.06,North,0,3.0,4.0,57,0.00,,,0.00,meteohub,2013-03-02 06:50:00,
2013-03-02 01:51:00,55.4,40.5,30.06,North,0,2.0,4.0,57,0.00,,,0.00,meteohub,2013-03-02 06:51:00,
2013-03-02 01:52:00,55.4,40.5,30.06,North,0,2.0,4.0,57,0.00,,,0.00,meteohub,2013-03-02 06:52:00,
2013-03-02 01:56:00,55.4,40.5,30.06,NW,315,2.0,4.0,57,0.00,,,0.00,meteohub,2013-03-02 06:56:00,
2013-03-02 01:57:00,55.4,40.5,30.06,North,0,2.0,4.0,57,0.00,,,0.00,meteohub,2013-03-02 06:57:00,
2013-03-02 02:02:00,55.4,40.8,30.06,NW,315,2.0,4.0,58,0.00,,,0.00,meteohub,2013-03-02 07:02:00,
2013-03-02 02:04:00,55.4,40.8,30.06,North,0,2.0,4.0,58,0.00,,,0.00,meteohub,2013-03-02 07:04:00,
2013-03-02 02:05:00,55.4,40.8,30.06,West,270,2.0,4.0,58,0.00,,,0.00,meteohub,2013-03-02 07:05:00,
2013-03-02 02:07:00,55.4,40.8,30.06,NW,315,2.0,3.0,58,0.00,,,0.00,meteohub,2013-03-02 07:07:00,
2013-03-02 02:10:00,55.4,40.8,30.06,North,0,3.0,3.0,58,0.00,,,0.00,meteohub,2013-03-02 07:10:00,
2013-03-02 02:11:00,55.4,40.8,30.06,North,0,3.0,3.0,58,0.00,,,0.00,meteohub,2013-03-02 07:11:00,
2013-03-02 02:13:00,55.4,40.5,30.06,SE,135,2.0,3.0,57,0.00,,,0.00,meteohub,2013-03-02 07:13:00,
2013-03-02 02:15:00,55.4,40.5,30.06,NW,315,2.0,3.0,57,0.00,,,0.00,meteohub,2013-03-02 07:15:00,
2013-03-02 02:16:00,55.4,40.5,30.06,NW,315,4.0,4.0,57,0.00,,,0.00,meteohub,2013-03-02 07:16:00,
2013-03-02 02:17:00,55.4,40.5,30.06,NW,315,4.0,4.0,57,0.00,,,0.00,meteohub,2013-03-02 07:17:00,
2013-03-02 02:18:00,55.4,40.5,30.06,North,0,4.0,4.0,57,0.00,,,0.00,meteohub,2013-03-02 07:18:00,
2013-03-02 02:21:00,55.4,40.8,30.06,NW,315,3.0,4.0,58,0.00,,,0.00,meteohub,2013-03-02 07:21:00,
2013-03-02 02:22:00,55.4,40.8,30.06,North,0,2.0,4.0,58,0.00,,,0.00,meteohub,2013-03-02 07:22:00,
2013-03-02 02:23:00,55.4,40.8,30.06,North,0,4.0,4.0,58,0.00,,,0.00,meteohub,2013-03-02 07:23:00,
2013-03-02 02:26:00,55.4,40.8,30.06,North,0,4.0,4.0,58,0.00,,,0.00,meteohub,2013-03-02 07:26:00,
2013-03-02 02:28:00,55.4,40.8,30.06,North,0,4.0,4.0,58,0.00,,,0.00,meteohub,2013-03-02 07:28:00,
2013-03-02 02:29:00,55.4,40.8,30.06,North,0,4.0,4.0,58,0.00,,,0.00,meteohub,2013-03-02 07:29:00,
2013-03-02 02:31:00,55.4,40.8,30.06,NW,315,4.0,4.0,58,0.00,,,0.00,meteohub,2013-03-02 07:31:00,
2013-03-02 02:33:00,55.4,40.8,30.05,NW,315,3.0,4.0,58,0.00,,,0.00,meteohub,2013-03-02 07:33:00,
2013-03-02 02:34:00,55.4,40.8,30.06,North,0,2.0,4.0,58,0.00,,,0.00,meteohub,2013-03-02 07:34:00,
2013-03-02 02:35:00,55.4,40.8,30.05,North,0,4.0,4.0,58,0.00,,,0.00,meteohub,2013-03-02 07:35:00,
2013-03-02 02:39:00,55.4,40.8,30.05,North,0,2.0,4.0,58,0.00,,,0.00,meteohub,2013-03-02 07:39:00,
2013-03-02 02:41:00,55.4,40.8,30.05,North,0,4.0,4.0,58,0.00,,,0.00,meteohub,2013-03-02 07:41:00,
2013-03-02 02:43:00,55.4,40.8,30.05,East,90,2.0,4.0,58,0.00,,,0.00,meteohub,2013-03-02 07:43:00,
2013-03-02 02:44:00,55.4,40.8,30.06,North,0,2.0,4.0,58,0.00,,,0.00,meteohub,2013-03-02 07:44:00,
2013-03-02 02:45:00,55.4,40.8,30.06,North,0,2.0,4.0,58,0.00,,,0.00,meteohub,2013-03-02 07:45:00,
2013-03-02 02:47:00,55.2,41.2,30.05,SW,225,2.0,4.0,59,0.00,,,0.00,meteohub,2013-03-02 07:47:00,
2013-03-02 02:50:00,55.2,41.2,30.05,North,0,2.0,4.0,59,0.00,,,0.00,meteohub,2013-03-02 07:50:00,
2013-03-02 02:51:00,55.2,41.2,30.05,North,0,2.0,4.0,59,0.00,,,0.00,meteohub,2013-03-02 07:51:00,
2013-03-02 02:53:00,55.2,41.2,30.06,NW,315,3.0,4.0,59,0.00,,,0.00,meteohub,2013-03-02 07:53:00,
2013-03-02 02:56:00,55.2,41.2,30.06,NW,315,2.0,4.0,59,0.00,,,0.00,meteohub,2013-03-02 07:56:00,
2013-03-02 02:58:00,55.2,41.2,30.06,North,0,4.0,4.0,59,0.00,,,0.00,meteohub,2013-03-02 07:58:00,
2013-03-02 02:59:00,55.2,41.2,30.06,North,0,3.0,4.0,59,0.00,,,0.00,meteohub,2013-03-02 07:59:00,
2013-03-02 03:01:00,55.2,41.2,30.06,NW,315,4.0,4.0,59,0.00,,,0.00,meteohub,2013-03-02 08:01:00,
2013-03-02 03:03:00,55.2,41.5,30.06,West,270,3.0,4.0,60,0.00,,,0.00,meteohub,2013-03-02 08:03:00,
2013-03-02 03:04:00,55.2,41.5,30.06,East,90,2.0,4.0,60,0.00,,,0.00,meteohub,2013-03-02 08:04:00,
2013-03-02 03:05:00,55.2,41.5,30.06,North,0,2.0,4.0,60,0.00,,,0.00,meteohub,2013-03-02 08:05:00,
2013-03-02 03:09:00,55.2,41.5,30.06,NE,45,2.0,4.0,60,0.00,,,0.00,meteohub,2013-03-02 08:09:00,
2013-03-02 03:10:00,55.2,41.5,30.06,North,0,2.0,4.0,60,0.00,,,0.00,meteohub,2013-03-02 08:10:00,
2013-03-02 03:11:00,55.2,41.5,30.06,NW,315,2.0,4.0,60,0.00,,,0.00,meteohub,2013-03-02 08:11:00,
2013-03-02 03:13:00,55.2,41.5,30.06,North,0,4.0,4.0,60,0.00,,,0.00,meteohub,2013-03-02 08:13:00,
2013-03-02 03:15:00,55.2,41.5,30.06,NE,45,3.0,4.0,60,0.00,,,0.00,meteohub,2013-03-02 08:15:00,
2013-03-02 03:17:00,55.2,41.5,30.06,NW,315,2.0,4.0,60,0.00,,,0.00,meteohub,2013-03-02 08:17:00,
2013-03-02 03:20:00,55.2,42.1,30.06,North,0,2.0,4.0,61,0.00,,,0.00,meteohub,2013-03-02 08:20:00,
2013-03-02 03:22:00,55.2,41.5,30.05,North,0,3.0,4.0,60,0.00,,,0.00,meteohub,2013-03-02 08:22:00,
2013-03-02 03:24:00,55.2,41.5,30.05,NW,315,2.0,4.0,60,0.00,,,0.00,meteohub,2013-03-02 08:24:00,
2013-03-02 03:25:00,55.2,42.1,30.05,North,0,4.0,5.0,61,0.00,,,0.00,meteohub,2013-03-02 08:25:00,
2013-03-02 03:26:00,55.2,42.1,30.05,North,0,3.0,5.0,61,0.00,,,0.00,meteohub,2013-03-02 08:26:00,
2013-03-02 03:27:00,55.2,41.5,30.05,West,270,2.0,5.0,60,0.00,,,0.00,meteohub,2013-03-02 08:27:00,
2013-03-02 03:30:00,55.2,42.1,30.05,NW,315,2.0,5.0,61,0.00,,,0.00,meteohub,2013-03-02 08:30:00,
2013-03-02 03:32:00,55.2,42.1,30.05,North,0,2.0,5.0,61,0.00,,,0.00,meteohub,2013-03-02 08:32:00,
2013-03-02 03:34:00,55.2,42.1,30.05,NE,45,3.0,5.0,61,0.00,,,0.00,meteohub,2013-03-02 08:34:00,
2013-03-02 03:37:00,55.2,42.1,30.05,North,0,2.0,4.0,61,0.00,,,0.00,meteohub,2013-03-02 08:37:00,
2013-03-02 03:38:00,55.2,42.1,30.05,North,0,2.0,4.0,61,0.00,,,0.00,meteohub,2013-03-02 08:38:00,
2013-03-02 03:40:00,55.2,42.1,30.05,North,0,3.0,4.0,61,0.00,,,0.00,meteohub,2013-03-02 08:40:00,
2013-03-02 03:41:00,55.2,41.5,30.05,North,0,2.0,4.0,60,0.00,,,0.00,meteohub,2013-03-02 08:41:00,
2013-03-02 03:42:00,55.2,41.5,30.05,North,0,2.0,4.0,60,0.00,,,0.00,meteohub,2013-03-02 08:42:00,
2013-03-02 03:43:00,55.0,41.4,30.05,NE,45,2.0,4.0,60,0.00,,,0.00,meteohub,2013-03-02 08:43:00,
2013-03-02 03:45:00,55.0,41.4,30.05,SE,135,2.0,4.0,60,0.00,,,0.00,meteohub,2013-03-02 08:45:00,
2013-03-02 03:47:00,55.0,41.4,30.05,NE,45,2.0,4.0,60,0.00,,,0.00,meteohub,2013-03-02 08:47:00,
2013-03-02 03:49:00,55.0,41.4,30.05,NW,315,2.0,4.0,60,0.00,,,0.00,meteohub,2013-03-02 08:49:00,
2013-03-02 03:52:00,55.0,41.4,30.06,NW,315,2.0,4.0,60,0.00,,,0.00,meteohub,2013-03-02 08:52:00,
2013-03-02 03:56:00,54.7,40.3,30.05,North,0,3.0,3.0,58,0.00,,,0.00,meteohub,2013-03-02 08:56:00,
2013-03-02 03:57:00,54.7,40.3,30.05,North,0,3.0,3.0,58,0.00,,,0.00,meteohub,2013-03-02 08:57:00,
2013-03-02 04:01:00,54.7,40.3,30.05,NW,315,2.0,3.0,58,0.00,,,0.00,meteohub,2013-03-02 09:01:00,
2013-03-02 04:02:00,54.7,40.3,30.05,NW,315,2.0,3.0,58,0.00,,,0.00,meteohub,2013-03-02 09:02:00,
2013-03-02 04:03:00,54.7,40.3,30.05,North,0,4.0,4.0,58,0.00,,,0.00,meteohub,2013-03-02 09:03:00,
2013-03-02 04:07:00,54.7,40.3,30.05,North,0,2.0,4.0,58,0.00,,,0.00,meteohub,2013-03-02 09:07:00,
2013-03-02 04:08:00,54.7,40.3,30.05,NE,45,2.0,4.0,58,0.00,,,0.00,meteohub,2013-03-02 09:08:00,
2013-03-02 04:09:00,54.7,40.3,30.05,North,0,1.0,4.0,58,0.00,,,0.00,meteohub,2013-03-02 09:09:00,
2013-03-02 04:12:00,54.7,40.3,30.05,NW,315,2.0,4.0,58,0.00,,,0.00,meteohub,2013-03-02 09:12:00,
2013-03-02 04:13:00,54.7,40.3,30.05,North,0,2.0,4.0,58,0.00,,,0.00,meteohub,2013-03-02 09:13:00,
2013-03-02 04:14:00,54.7,40.3,30.05,North,0,2.0,4.0,58,0.00,,,0.00,meteohub,2013-03-02 09:14:00,
2013-03-02 04:16:00,54.7,40.3,30.05,East,90,1.0,4.0,58,0.00,,,0.00,meteohub,2013-03-02 09:16:00,
2013-03-02 04:18:00,54.5,40.5,30.05,NE,45,2.0,4.0,59,0.00,,,0.00,meteohub,2013-03-02 09:18:00,
2013-03-02 04:19:00,54.5,40.1,30.06,North,0,2.0,4.0,58,0.00,,,0.00,meteohub,2013-03-02 09:19:00,
2013-03-02 04:21:00,54.5,40.1,30.06,North,0,2.0,4.0,58,0.00,,,0.00,meteohub,2013-03-02 09:21:00,
2013-03-02 04:23:00,54.5,40.5,30.05,North,0,4.0,4.0,59,0.00,,,0.00,meteohub,2013-03-02 09:23:00,
2013-03-02 04:24:00,54.5,40.1,30.06,NE,45,3.0,4.0,58,0.00,,,0.00,meteohub,2013-03-02 09:24:00,
2013-03-02 04:25:00,54.5,40.1,30.05,North,0,2.0,4.0,58,0.00,,,0.00,meteohub,2013-03-02 09:25:00,
2013-03-02 04:28:00,54.5,40.1,30.05,North,0,3.0,4.0,58,0.00,,,0.00,meteohub,2013-03-02 09:28:00,
2013-03-02 04:29:00,54.5,40.1,30.05,North,0,2.0,4.0,58,0.00,,,0.00,meteohub,2013-03-02 09:29:00,
2013-03-02 04:30:00,54.5,39.6,30.04,NE,45,3.0,4.0,57,0.00,,,0.00,meteohub,2013-03-02 09:30:00,
2013-03-02 04:31:00,54.5,39.6,30.04,North,0,2.0,4.0,57,0.00,,,0.00,meteohub,2013-03-02 09:31:00,
2013-03-02 04:34:00,54.5,39.6,30.05,North,0,2.0,4.0,57,0.00,,,0.00,meteohub,2013-03-02 09:34:00,
2013-03-02 04:36:00,54.5,39.6,30.04,North,0,2.0,4.0,57,0.00,,,0.00,meteohub,2013-03-02 09:36:00,
2013-03-02 04:37:00,54.5,39.6,30.05,North,0,2.0,4.0,57,0.00,,,0.00,meteohub,2013-03-02 09:37:00,
2013-03-02 04:39:00,54.3,39.4,30.04,NE,45,2.0,4.0,57,0.00,,,0.00,meteohub,2013-03-02 09:39:00,
2013-03-02 04:41:00,54.3,39.9,30.05,North,0,2.0,3.0,58,0.00,,,0.00,meteohub,2013-03-02 09:41:00,
2013-03-02 04:42:00,54.3,39.9,30.05,North,0,2.0,3.0,58,0.00,,,0.00,meteohub,2013-03-02 09:42:00,
2013-03-02 04:46:00,54.3,39.9,30.04,NE,45,1.0,3.0,58,0.00,,,0.00,meteohub,2013-03-02 09:46:00,
2013-03-02 04:47:00,54.3,39.9,30.05,NE,45,1.0,3.0,58,0.00,,,0.00,meteohub,2013-03-02 09:47:00,
2013-03-02 04:48:00,54.1,39.7,30.05,North,0,0.0,3.0,58,0.00,,,0.00,meteohub,2013-03-02 09:48:00,
2013-03-02 04:52:00,54.0,39.9,30.04,North,0,2.0,2.0,59,0.00,,,0.00,meteohub,2013-03-02 09:52:00,
2013-03-02 04:53:00,54.0,39.9,30.04,North,0,1.0,2.0,59,0.00,,,0.00,meteohub,2013-03-02 09:53:00,
2013-03-02 04:54:00,54.0,39.9,30.04,North,0,2.0,2.0,59,0.00,,,0.00,meteohub,2013-03-02 09:54:00,
2013-03-02 04:57:00,53.8,39.7,30.04,NE,45,0.0,2.0,59,0.00,,,0.00,meteohub,2013-03-02 09:57:00,
2013-03-02 04:59:00,53.8,39.7,30.04,NE,45,1.0,2.0,59,0.00,,,0.00,meteohub,2013-03-02 09:59:00,
2013-03-02 05:00:00,53.8,39.7,30.04,NE,45,1.0,2.0,59,0.00,,,0.00,meteohub,2013-03-02 10:00:00,
2013-03-02 05:01:00,53.8,40.3,30.04,North,0,2.0,2.0,60,0.00,,,0.00,meteohub,2013-03-02 10:01:00,
2013-03-02 05:06:00,53.6,40.1,30.04,North,0,1.0,2.0,60,0.00,,,0.00,meteohub,2013-03-02 10:06:00,
2013-03-02 05:07:00,53.6,40.1,30.03,North,0,1.0,2.0,60,0.00,,,0.00,meteohub,2013-03-02 10:07:00,
2013-03-02 05:12:00,53.4,40.3,30.03,North,0,0.0,2.0,61,0.00,,,0.00,meteohub,2013-03-02 10:12:00,
2013-03-02 05:13:00,53.4,40.3,30.03,North,0,0.0,2.0,61,0.00,,,0.00,meteohub,2013-03-02 10:13:00,
2013-03-02 05:14:00,53.4,40.6,30.04,North,0,0.0,2.0,62,0.00,,,0.00,meteohub,2013-03-02 10:14:00,
2013-03-02 05:18:00,53.2,40.6,30.04,East,90,0.0,2.0,62,0.00,,,0.00,meteohub,2013-03-02 10:18:00,
2013-03-02 05:19:00,53.2,40.6,30.04,East,90,0.0,2.0,62,0.00,,,0.00,meteohub,2013-03-02 10:19:00,
2013-03-02 05:24:00,52.9,40.3,30.03,SE,135,2.0,2.0,62,0.00,,,0.00,meteohub,2013-03-02 10:24:00,
2013-03-02 05:25:00,52.9,40.3,30.02,East,90,1.0,1.0,62,0.00,,,0.00,meteohub,2013-03-02 10:25:00,
2013-03-02 05:29:00,52.5,40.3,30.02,South,180,2.0,0.0,63,0.00,,,0.00,meteohub,2013-03-02 10:29:00,
2013-03-02 05:31:00,52.3,40.5,30.03,North,0,2.0,2.0,64,0.00,,,0.00,meteohub,2013-03-02 10:31:00,
2013-03-02 05:32:00,52.3,40.5,30.02,NE,45,2.0,2.0,64,0.00,,,0.00,meteohub,2013-03-02 10:32:00,
2013-03-02 05:33:00,52.3,40.5,30.02,NE,45,2.0,2.0,64,0.00,,,0.00,meteohub,2013-03-02 10:33:00,
2013-03-02 05:36:00,52.3,40.5,30.03,NE,45,0.0,3.0,64,0.00,,,0.00,meteohub,2013-03-02 10:36:00,
2013-03-02 05:37:00,52.2,40.3,30.03,NE,45,0.0,3.0,64,0.00,,,0.00,meteohub,2013-03-02 10:37:00,
2013-03-02 05:39:00,52.2,40.3,30.03,NE,45,1.0,3.0,64,0.00,,,0.00,meteohub,2013-03-02 10:39:00,
2013-03-02 05:42:00,52.0,40.6,30.03,East,90,2.0,3.0,65,0.00,,,0.00,meteohub,2013-03-02 10:42:00,
2013-03-02 05:44:00,52.0,40.6,30.03,NE,45,1.0,3.0,65,0.00,,,0.00,meteohub,2013-03-02 10:44:00,
2013-03-02 05:45:00,51.8,40.5,30.03,NNW,338,1.0,3.0,65,0.00,,,0.00,meteohub,2013-03-02 10:45:00,
2013-03-02 05:49:00,51.6,40.6,30.04,NE,45,0.0,3.0,66,0.00,,,0.00,meteohub,2013-03-02 10:49:00,
2013-03-02 05:50:00,51.6,40.6,30.04,NE,45,0.0,2.0,66,0.00,,,0.00,meteohub,2013-03-02 10:50:00,
2013-03-02 05:51:00,51.6,41.0,30.04,NE,45,0.0,2.0,67,0.00,,,0.00,meteohub,2013-03-02 10:51:00,
2013-03-02 05:55:00,51.3,40.6,30.03,NE,45,0.0,2.0,67,0.00,,,0.00,meteohub,2013-03-02 10:55:00,
2013-03-02 05:56:00,51.3,40.6,30.03,NE,45,0.0,2.0,67,0.00,,,0.00,meteohub,2013-03-02 10:56:00,
2013-03-02 05:58:00,51.3,40.6,30.03,NE,45,0.0,2.0,67,0.00,,,0.00,meteohub,2013-03-02 10:58:00,
2013-03-02 06:01:00,51.1,40.8,30.04,NE,45,0.0,1.0,68,0.00,,,0.00,meteohub,2013-03-02 11:01:00,
2013-03-02 06:02:00,51.1,40.8,30.04,NE,45,0.0,1.0,68,0.00,,,0.00,meteohub,2013-03-02 11:02:00,
2013-03-02 06:05:00,50.9,40.6,30.04,NE,45,0.0,1.0,68,0.00,,,0.00,meteohub,2013-03-02 11:05:00,
2013-03-02 06:07:00,50.9,40.6,30.04,NE,45,1.0,0.0,68,0.00,,,0.00,meteohub,2013-03-02 11:07:00,
2013-03-02 06:08:00,50.7,41.0,30.04,NE,45,0.0,0.0,69,0.00,,,0.00,meteohub,2013-03-02 11:08:00,
2013-03-02 06:13:00,50.5,41.2,30.04,NE,45,0.0,1.0,70,0.00,,,0.00,meteohub,2013-03-02 11:13:00,
2013-03-02 06:14:00,50.4,41.0,30.04,NE,45,0.0,1.0,70,0.00,,,0.00,meteohub,2013-03-02 11:14:00,
2013-03-02 06:15:00,50.4,41.0,30.04,NE,45,0.0,1.0,70,0.00,,,0.00,meteohub,2013-03-02 11:15:00,
2013-03-02 06:18:00,50.2,40.8,30.04,NE,45,1.0,1.0,70,0.00,,,0.00,meteohub,2013-03-02 11:18:00,
2013-03-02 06:19:00,50.2,40.8,30.04,NE,45,1.0,1.0,70,0.00,,,0.00,meteohub,2013-03-02 11:19:00,
2013-03-02 06:20:00,50.0,41.0,30.04,NE,45,0.0,1.0,71,0.00,,,0.00,meteohub,2013-03-02 11:20:00,
2013-03-02 06:21:00,50.0,41.0,30.04,NE,45,0.0,1.0,71,0.00,,,0.00,meteohub,2013-03-02 11:21:00,
2013-03-02 06:24:00,49.8,41.2,30.04,NE,45,0.0,1.0,72,0.00,,,0.00,meteohub,2013-03-02 11:24:00,
2013-03-02 06:26:00,49.6,41.0,30.04,NE,45,0.0,1.0,72,0.00,,,0.00,meteohub,2013-03-02 11:26:00,
2013-03-02 06:27:00,49.6,41.0,30.04,NE,45,0.0,1.0,72,0.00,,,0.00,meteohub,2013-03-02 11:27:00,
2013-03-02 06:28:00,49.6,41.4,30.04,NE,45,0.0,1.0,73,0.00,,,0.00,meteohub,2013-03-02 11:28:00,
2013-03-02 06:30:00,49.6,41.4,30.04,NE,45,0.0,1.0,73,0.00,,,0.00,meteohub,2013-03-02 11:30:00,
2013-03-02 06:32:00,49.5,41.2,30.04,NE,45,0.0,1.0,73,0.00,,,0.00,meteohub,2013-03-02 11:32:00,
2013-03-02 06:33:00,49.3,41.0,30.04,NE,45,0.0,1.0,73,0.00,,,0.00,meteohub,2013-03-02 11:33:00,
2013-03-02 06:35:00,49.3,41.4,30.04,NE,45,0.0,0.0,74,0.00,,,0.00,meteohub,2013-03-02 11:35:00,
2013-03-02 06:36:00,49.1,41.2,30.04,NE,45,0.0,0.0,74,0.00,,,0.00,meteohub,2013-03-02 11:36:00,
2013-03-02 06:37:00,49.1,41.2,30.05,NE,45,0.0,0.0,74,0.00,,,0.00,meteohub,2013-03-02 11:37:00,
2013-03-02 06:40:00,48.9,41.0,30.05,NE,45,1.0,0.0,74,0.00,,,0.00,meteohub,2013-03-02 11:40:00,
2013-03-02 06:43:00,48.7,40.8,30.04,NE,45,1.0,0.0,74,0.00,,,0.00,meteohub,2013-03-02 11:43:00,
2013-03-02 06:45:00,48.7,41.2,30.04,NE,45,0.0,1.0,75,0.00,,,0.00,meteohub,2013-03-02 11:45:00,
2013-03-02 06:47:00,48.7,41.2,30.04,NE,45,0.0,1.0,75,0.00,,,0.00,meteohub,2013-03-02 11:47:00,
2013-03-02 06:48:00,48.7,41.2,30.04,NE,45,0.0,1.0,75,0.00,,,0.00,meteohub,2013-03-02 11:48:00,
2013-03-02 06:49:00,48.7,41.2,30.04,NE,45,0.0,1.0,75,0.00,,,0.00,meteohub,2013-03-02 11:49:00,
2013-03-02 06:51:00,48.7,41.2,30.04,NE,45,0.0,1.0,75,0.00,,,0.00,meteohub,2013-03-02 11:51:00,
2013-03-02 06:52:00,48.7,41.2,30.04,NE,45,0.0,1.0,75,0.00,,,0.00,meteohub,2013-03-02 11:52:00,
2013-03-02 06:54:00,48.7,41.2,30.04,NE,45,0.0,1.0,75,0.00,,,0.00,meteohub,2013-03-02 11:54:00,
2013-03-02 06:56:00,48.6,41.4,30.04,NE,45,1.0,1.0,76,0.00,,,0.00,meteohub,2013-03-02 11:56:00,
2013-03-02 06:57:00,48.6,41.4,30.04,NE,45,1.0,1.0,76,0.00,,,0.00,meteohub,2013-03-02 11:57:00,
2013-03-02 07:01:00,48.6,41.4,30.05,North,0,1.0,1.0,76,0.00,,,0.00,meteohub,2013-03-02 12:01:00,
2013-03-02 07:02:00,48.6,41.4,30.05,North,0,1.0,1.0,76,0.00,,,0.00,meteohub,2013-03-02 12:02:00,
2013-03-02 07:07:00,48.7,41.9,30.05,East,90,1.0,1.0,77,0.00,,,0.00,meteohub,2013-03-02 12:07:00,
2013-03-02 07:08:00,48.9,42.1,30.05,East,90,3.0,3.0,77,0.00,,,0.00,meteohub,2013-03-02 12:08:00,
2013-03-02 07:10:00,48.9,42.1,30.04,NE,45,2.0,3.0,77,0.00,,,0.00,meteohub,2013-03-02 12:10:00,
2013-03-02 07:13:00,49.1,42.3,30.04,NE,45,2.0,3.0,77,0.00,,,0.00,meteohub,2013-03-02 12:13:00,
2013-03-02 07:16:00,49.3,42.4,30.04,NE,45,2.0,3.0,77,0.00,,,0.00,meteohub,2013-03-02 12:16:00,
2013-03-02 07:20:00,49.5,42.6,30.05,NE,45,1.0,3.0,77,0.00,,,0.00,meteohub,2013-03-02 12:20:00,
2013-03-02 07:21:00,49.6,42.8,30.05,East,90,2.0,3.0,77,0.00,,,0.00,meteohub,2013-03-02 12:21:00,
2013-03-02 07:23:00,49.8,43.0,30.05,NE,45,2.0,3.0,77,0.00,,,0.00,meteohub,2013-03-02 12:23:00,
2013-03-02 07:24:00,49.8,43.0,30.06,North,0,2.0,3.0,77,0.00,,,0.00,meteohub,2013-03-02 12:24:00,
2013-03-02 07:28:00,50.2,42.3,30.06,NE,45,2.0,2.0,74,0.00,,,0.00,meteohub,2013-03-02 12:28:00,
2013-03-02 07:29:00,50.2,42.3,30.07,East,90,2.0,2.0,74,0.00,,,0.00,meteohub,2013-03-02 12:29:00,
2013-03-02 07:32:00,50.4,42.1,30.07,North,0,2.0,2.0,73,0.00,,,0.00,meteohub,2013-03-02 12:32:00,
2013-03-02 07:34:00,50.4,42.1,30.08,North,0,2.0,2.0,73,0.00,,,0.00,meteohub,2013-03-02 12:34:00,
2013-03-02 07:35:00,50.4,42.1,30.08,North,0,2.0,2.0,73,0.00,,,0.00,meteohub,2013-03-02 12:35:00,
2013-03-02 07:36:00,50.4,42.1,30.08,North,0,2.0,2.0,73,0.00,,,0.00,meteohub,2013-03-02 12:36:00,
2013-03-02 07:37:00,50.4,42.1,30.08,North,0,1.0,2.0,73,0.00,,,0.00,meteohub,2013-03-02 12:37:00,
2013-03-02 07:40:00,50.2,41.9,30.08,NE,45,1.0,2.0,73,0.00,,,0.00,meteohub,2013-03-02 12:40:00,
2013-03-02 07:41:00,50.2,41.9,30.08,NE,45,1.0,2.0,73,0.00,,,0.00,meteohub,2013-03-02 12:41:00,
2013-03-02 07:45:00,50.0,41.7,30.08,North,0,1.0,2.0,73,0.00,,,0.00,meteohub,2013-03-02 12:45:00,
2013-03-02 07:46:00,49.8,42.3,30.08,North,0,2.0,2.0,75,0.00,,,0.00,meteohub,2013-03-02 12:46:00,
2013-03-02 07:47:00,49.8,42.3,30.08,North,0,2.0,2.0,75,0.00,,,0.00,meteohub,2013-03-02 12:47:00,
2013-03-02 07:48:00,49.6,42.1,30.08,North,0,1.0,2.0,75,0.00,,,0.00,meteohub,2013-03-02 12:48:00,
2013-03-02 07:51:00,49.5,41.9,30.08,North,0,1.0,2.0,75,0.00,,,0.00,meteohub,2013-03-02 12:51:00,
2013-03-02 07:53:00,49.5,41.9,30.09,North,0,2.0,2.0,75,0.00,,,0.00,meteohub,2013-03-02 12:53:00,
2013-03-02 07:57:00,49.1,41.5,30.08,North,0,0.0,2.0,75,0.00,,,0.00,meteohub,2013-03-02 12:57:00,
2013-03-02 07:59:00,49.1,41.9,30.09,North,0,0.0,2.0,76,0.00,,,0.00,meteohub,2013-03-02 12:59:00,
2013-03-02 08:02:00,48.9,41.7,30.09,North,0,0.0,2.0,76,0.00,,,0.00,meteohub,2013-03-02 13:02:00,
2013-03-02 08:03:00,48.7,41.5,30.09,North,0,0.0,2.0,76,0.00,,,0.00,meteohub,2013-03-02 13:03:00,
2013-03-02 08:04:00,48.7,41.5,30.09,North,0,0.0,2.0,76,0.00,,,0.00,meteohub,2013-03-02 13:04:00,
2013-03-02 08:07:00,48.6,41.7,30.09,North,0,0.0,2.0,77,0.01,,,0.01,meteohub,2013-03-02 13:07:00,
2013-03-02 08:09:00,48.6,41.7,30.09,North,0,0.0,2.0,77,0.01,,,0.01,meteohub,2013-03-02 13:09:00,
2013-03-02 08:10:00,48.4,41.5,30.09,North,0,1.0,1.0,77,0.01,,,0.01,meteohub,2013-03-02 13:10:00,
2013-03-02 08:13:00,48.2,41.7,30.08,NE,45,1.0,1.0,78,0.01,,,0.01,meteohub,2013-03-02 13:13:00,
2013-03-02 08:15:00,48.2,42.1,30.08,NE,45,1.0,1.0,79,0.01,,,0.01,meteohub,2013-03-02 13:15:00,
2013-03-02 08:16:00,48.2,42.1,30.08,NE,45,1.0,1.0,79,0.01,,,0.01,meteohub,2013-03-02 13:16:00,
2013-03-02 08:17:00,48.0,42.1,30.08,NE,45,1.0,1.0,80,0.01,,,0.01,meteohub,2013-03-02 13:17:00,
2013-03-02 08:21:00,47.8,42.6,30.09,NE,45,0.0,1.0,82,0.01,,,0.01,meteohub,2013-03-02 13:21:00,
2013-03-02 08:22:00,47.8,42.6,30.09,NE,45,0.0,1.0,82,0.01,,,0.01,meteohub,2013-03-02 13:22:00,
2013-03-02 08:23:00,47.8,42.6,30.09,NE,45,2.0,2.0,82,0.01,,,0.01,meteohub,2013-03-02 13:23:00,
2013-03-02 08:27:00,47.8,43.0,30.08,NE,45,1.0,2.0,83,0.01,,,0.01,meteohub,2013-03-02 13:27:00,
2013-03-02 08:28:00,47.8,43.2,30.08,NE,45,1.0,2.0,84,0.01,,,0.01,meteohub,2013-03-02 13:28:00,
2013-03-02 08:29:00,47.8,43.2,30.08,NE,45,1.0,2.0,84,0.01,,,0.01,meteohub,2013-03-02 13:29:00,
2013-03-02 08:31:00,47.8,43.5,30.08,NE,45,0.0,2.0,85,0.01,,,0.01,meteohub,2013-03-02 13:31:00,
2013-03-02 08:34:00,47.8,43.5,30.08,NE,45,0.0,2.0,85,0.01,,,0.01,meteohub,2013-03-02 13:34:00,
2013-03-02 08:35:00,47.8,43.5,30.09,NE,45,0.0,2.0,85,0.01,,,0.01,meteohub,2013-03-02 13:35:00,
2013-03-02 08:36:00,48.0,43.7,30.09,NE,45,0.0,2.0,85,0.01,,,0.01,meteohub,2013-03-02 13:36:00,
2013-03-02 08:38:00,48.0,43.7,30.09,East,90,0.0,2.0,85,0.01,,,0.01,meteohub,2013-03-02 13:38:00,
2013-03-02 08:40:00,48.2,43.5,30.09,NE,45,1.0,1.0,84,0.01,,,0.01,meteohub,2013-03-02 13:40:00,
2013-03-02 08:42:00,48.4,44.1,30.09,NE,45,1.0,1.0,85,0.01,,,0.01,meteohub,2013-03-02 13:42:00,
2013-03-02 08:43:00,48.4,44.1,30.09,NE,45,1.0,1.0,85,0.01,,,0.01,meteohub,2013-03-02 13:43:00,
2013-03-02 08:46:00,48.6,44.2,30.09,North,0,1.0,1.0,85,0.01,,,0.01,meteohub,2013-03-02 13:46:00,
2013-03-02 08:48:00,48.7,44.4,30.09,NE,45,1.0,1.0,85,0.01,,,0.01,meteohub,2013-03-02 13:48:00,
2013-03-02 08:49:00,48.9,44.6,30.09,North,0,2.0,2.0,85,0.01,,,0.01,meteohub,2013-03-02 13:49:00,
2013-03-02 08:51:00,48.9,44.6,30.09,North,0,2.0,2.0,85,0.01,,,0.01,meteohub,2013-03-02 13:51:00,
2013-03-02 08:53:00,49.1,44.8,30.09,North,0,1.0,2.0,85,0.01,,,0.01,meteohub,2013-03-02 13:53:00,
2013-03-02 08:54:00,49.3,45.0,30.09,NE,45,1.0,2.0,85,0.01,,,0.01,meteohub,2013-03-02 13:54:00,
2013-03-02 08:56:00,49.3,44.6,30.09,North,0,2.0,2.0,84,0.01,,,0.01,meteohub,2013-03-02 13:56:00,
2013-03-02 08:58:00,49.3,44.6,30.09,North,0,1.0,2.0,84,0.01,,,0.01,meteohub,2013-03-02 13:58:00,
2013-03-02 09:00:00,49.5,44.8,30.09,North,0,1.0,2.0,84,0.00,,,0.01,meteohub,2013-03-02 14:00:00,
2013-03-02 09:01:00,49.6,45.0,30.09,NE,45,2.0,2.0,84,0.00,,,0.01,meteohub,2013-03-02 14:01:00,
2013-03-02 09:03:00,49.8,44.8,30.09,North,0,2.0,2.0,83,0.00,,,0.01,meteohub,2013-03-02 14:03:00,
2013-03-02 09:04:00,50.0,44.8,30.09,NE,45,2.0,2.0,82,0.00,,,0.01,meteohub,2013-03-02 14:04:00,
2013-03-02 09:07:00,50.2,45.0,30.09,NE,45,2.0,2.0,82,0.00,,,0.01,meteohub,2013-03-02 14:07:00,
2013-03-02 09:08:00,50.4,44.8,30.09,NE,45,2.0,2.0,81,0.00,,,0.01,meteohub,2013-03-02 14:08:00,
2013-03-02 09:09:00,50.5,45.0,30.09,East,90,2.0,2.0,81,0.00,,,0.01,meteohub,2013-03-02 14:09:00,
2013-03-02 09:12:00,50.9,45.0,30.09,North,0,2.0,2.0,80,0.00,,,0.01,meteohub,2013-03-02 14:12:00,
2013-03-02 09:14:00,51.3,44.6,30.09,NE,45,2.0,2.0,78,0.00,,,0.01,meteohub,2013-03-02 14:14:00,
2013-03-02 09:17:00,51.8,44.4,30.08,SE,135,3.0,3.0,76,0.00,,,0.01,meteohub,2013-03-02 14:17:00,
2013-03-02 09:19:00,52.2,44.4,30.09,NE,45,2.0,2.0,75,0.00,,,0.01,meteohub,2013-03-02 14:19:00,
2013-03-02 09:21:00,52.3,44.2,30.09,North,0,2.0,3.0,74,0.00,,,0.01,meteohub,2013-03-02 14:21:00,
2013-03-02 09:22:00,52.5,44.1,30.09,SE,135,2.0,3.0,73,0.00,,,0.01,meteohub,2013-03-02 14:22:00,
2013-03-02 09:24:00,52.9,44.1,30.09,North,0,2.0,3.0,72,0.00,,,0.01,meteohub,2013-03-02 14:24:00,
2013-03-02 09:25:00,53.1,44.2,30.09,North,0,3.0,3.0,72,0.00,,,0.01,meteohub,2013-03-02 14:25:00,
2013-03-02 09:27:00,53.1,44.2,30.09,North,0,2.0,3.0,72,0.00,,,0.01,meteohub,2013-03-02 14:27:00,
2013-03-02 09:31:00,53.6,44.1,30.09,North,0,2.0,3.0,70,0.00,,,0.01,meteohub,2013-03-02 14:31:00,
2013-03-02 09:32:00,53.8,44.2,30.09,North,0,2.0,3.0,70,0.00,,,0.01,meteohub,2013-03-02 14:32:00,
2013-03-02 09:34:00,54.1,44.2,30.09,North,0,2.0,3.0,69,0.00,,,0.01,meteohub,2013-03-02 14:34:00,
2013-03-02 09:37:00,54.7,44.8,30.09,North,0,2.0,3.0,69,0.00,,,0.01,meteohub,2013-03-02 14:37:00,
2013-03-02 09:38:00,54.7,44.2,30.09,East,90,2.0,3.0,68,0.00,,,0.01,meteohub,2013-03-02 14:38:00,
2013-03-02 09:42:00,54.5,43.7,30.09,North,0,2.0,3.0,67,0.00,,,0.01,meteohub,2013-03-02 14:42:00,
2013-03-02 09:43:00,54.1,43.3,30.09,North,0,2.0,3.0,67,0.00,,,0.01,meteohub,2013-03-02 14:43:00,
2013-03-02 09:45:00,53.8,43.2,30.09,North,0,2.0,2.0,67,0.00,,,0.01,meteohub,2013-03-02 14:45:00,
2013-03-02 09:47:00,53.6,42.4,30.10,North,0,2.0,2.0,66,0.00,,,0.01,meteohub,2013-03-02 14:47:00,
2013-03-02 09:49:00,53.2,43.0,30.10,North,0,2.0,2.0,68,0.00,,,0.01,meteohub,2013-03-02 14:49:00,
2013-03-02 09:52:00,52.9,42.6,30.10,NE,45,2.0,2.0,68,0.00,,,0.01,meteohub,2013-03-02 14:52:00,
2013-03-02 09:55:00,52.7,42.1,30.10,North,0,4.0,4.0,67,0.00,,,0.01,meteohub,2013-03-02 14:55:00,
2013-03-02 09:57:00,52.9,41.9,30.10,North,0,3.0,4.0,66,0.00,,,0.01,meteohub,2013-03-02 14:57:00,
2013-03-02 09:59:00,53.1,41.2,30.10,North,0,4.0,4.0,64,0.00,,,0.01,meteohub,2013-03-02 14:59:00,
2013-03-02 10:00:00,53.1,40.8,30.10,North,0,4.0,4.0,63,0.00,,,0.01,meteohub,2013-03-02 15:00:00,
2013-03-02 10:03:00,53.1,40.5,30.10,North,0,2.0,4.0,62,0.00,,,0.01,meteohub,2013-03-02 15:03:00,
2013-03-02 10:05:00,53.1,40.5,30.10,East,90,3.0,4.0,62,0.00,,,0.01,meteohub,2013-03-02 15:05:00,
2013-03-02 10:06:00,53.1,40.5,30.11,NE,45,2.0,4.0,62,0.00,,,0.01,meteohub,2013-03-02 15:06:00,
2013-03-02 10:09:00,53.2,40.1,30.10,North,0,4.0,4.0,61,0.00,,,0.01,meteohub,2013-03-02 15:09:00,
2013-03-02 10:10:00,53.1,39.6,30.11,North,0,3.0,4.0,60,0.00,,,0.01,meteohub,2013-03-02 15:10:00,
2013-03-02 10:11:00,53.1,39.6,30.11,North,0,3.0,4.0,60,0.00,,,0.01,meteohub,2013-03-02 15:11:00,
2013-03-02 10:14:00,53.1,39.9,30.11,NW,315,3.0,4.0,61,0.00,,,0.01,meteohub,2013-03-02 15:14:00,
2013-03-02 10:15:00,53.2,40.6,30.11,North,0,2.0,4.0,62,0.00,,,0.01,meteohub,2013-03-02 15:15:00,
2013-03-02 10:16:00,53.2,40.6,30.11,North,0,2.0,4.0,62,0.00,,,0.01,meteohub,2013-03-02 15:16:00,
2013-03-02 10:20:00,53.6,41.4,30.11,South,180,3.0,4.0,63,0.05,,,0.06,meteohub,2013-03-02 15:20:00,
2013-03-02 10:21:00,53.6,41.4,30.11,NE,45,2.0,4.0,63,0.05,,,0.06,meteohub,2013-03-02 15:21:00,
2013-03-02 10:22:00,53.6,41.4,30.11,North,0,3.0,4.0,63,0.05,,,0.06,meteohub,2013-03-02 15:22:00,
2013-03-02 10:25:00,53.6,40.8,30.11,North,0,4.0,4.0,62,0.09,,,0.11,meteohub,2013-03-02 15:25:00,
2013-03-02 10:26:00,53.4,41.2,30.11,North,0,4.0,4.0,63,0.09,,,0.11,meteohub,2013-03-02 15:26:00,
2013-03-02 10:27:00,53.4,41.2,30.11,North,0,3.0,4.0,63,0.09,,,0.11,meteohub,2013-03-02 15:27:00,
2013-03-02 10:28:00,53.2,41.0,30.11,North,0,3.0,4.0,63,0.09,,,0.11,meteohub,2013-03-02 15:28:00,
2013-03-02 10:31:00,53.2,41.0,30.12,North,0,1.0,4.0,63,0.11,,,0.12,meteohub,2013-03-02 15:31:00,
2013-03-02 10:34:00,53.1,41.5,30.12,North,0,2.0,4.0,65,0.11,,,0.12,meteohub,2013-03-02 15:34:00,
2013-03-02 10:35:00,53.1,41.5,30.12,North,0,2.0,4.0,65,0.11,,,0.12,meteohub,2013-03-02 15:35:00,
2013-03-02 10:36:00,53.1,41.5,30.12,East,90,2.0,4.0,65,0.11,,,0.12,meteohub,2013-03-02 15:36:00,
2013-03-02 10:40:00,53.1,42.8,30.12,East,90,3.0,4.0,68,0.11,,,0.12,meteohub,2013-03-02 15:40:00,
2013-03-02 10:41:00,53.1,42.8,30.12,North,0,3.0,4.0,68,0.11,,,0.12,meteohub,2013-03-02 15:41:00,
2013-03-02 10:45:00,52.9,43.3,30.12,North,0,3.0,3.0,70,0.11,,,0.12,meteohub,2013-03-02 15:45:00,
2013-03-02 10:46:00,52.9,43.3,30.12,North,0,3.0,3.0,70,0.11,,,0.12,meteohub,2013-03-02 15:46:00,
2013-03-02 10:47:00,52.9,43.7,30.12,NW,315,7.0,7.0,71,0.11,,,0.12,meteohub,2013-03-02 15:47:00,
2013-03-02 10:50:00,52.9,44.1,30.12,North,0,3.0,7.0,72,0.11,,,0.12,meteohub,2013-03-02 15:50:00,
2013-03-02 10:51:00,52.9,44.1,30.12,North,0,3.0,7.0,72,0.11,,,0.12,meteohub,2013-03-02 15:51:00,
2013-03-02 10:52:00,53.1,44.2,30.12,North,0,4.0,7.0,72,0.11,,,0.12,meteohub,2013-03-02 15:52:00,
2013-03-02 10:57:00,53.6,44.4,30.13,NW,315,6.0,7.0,71,0.11,,,0.12,meteohub,2013-03-02 15:57:00,
2013-03-02 10:58:00,53.8,44.2,30.12,NE,45,4.0,7.0,70,0.11,,,0.12,meteohub,2013-03-02 15:58:00,
2013-03-02 10:59:00,54.0,44.4,30.12,NE,45,4.0,7.0,70,0.11,,,0.12,meteohub,2013-03-02 15:59:00,
2013-03-02 11:02:00,54.3,44.4,30.12,West,270,4.0,7.0,69,0.11,,,0.12,meteohub,2013-03-02 16:02:00,
2013-03-02 11:03:00,54.5,44.6,30.12,North,0,4.0,7.0,69,0.11,,,0.12,meteohub,2013-03-02 16:03:00,
2013-03-02 11:04:00,55.2,44.8,30.12,NE,45,8.0,8.0,68,0.11,,,0.12,meteohub,2013-03-02 16:04:00,
2013-03-02 11:07:00,55.6,44.8,30.12,NW,315,7.0,7.0,67,0.11,,,0.12,meteohub,2013-03-02 16:07:00,
2013-03-02 11:09:00,56.1,44.6,30.13,West,270,4.0,6.0,65,0.11,,,0.12,meteohub,2013-03-02 16:09:00,
2013-03-02 11:10:00,56.1,44.6,30.13,West,270,4.0,8.0,65,0.14,,,0.15,meteohub,2013-03-02 16:10:00,
2013-03-02 11:14:00,56.8,44.4,30.13,NW,315,8.0,8.0,63,0.14,,,0.15,meteohub,2013-03-02 16:14:00,
2013-03-02 11:15:00,57.0,44.6,30.13,NE,45,4.0,8.0,63,0.11,,,0.15,meteohub,2013-03-02 16:15:00,
2013-03-02 11:16:00,57.2,44.2,30.13,West,270,4.0,8.0,62,0.11,,,0.15,meteohub,2013-03-02 16:16:00,
2013-03-02 11:19:00,57.9,44.6,30.13,SW,225,2.0,8.0,61,0.11,,,0.15,meteohub,2013-03-02 16:19:00,
2013-03-02 11:22:00,58.6,45.3,30.13,NE,45,4.0,8.0,61,0.07,,,0.15,meteohub,2013-03-02 16:22:00,
2013-03-02 11:25:00,58.8,43.7,30.13,SW,225,6.0,8.0,57,0.07,,,0.15,meteohub,2013-03-02 16:25:00,
2013-03-02 11:27:00,58.8,43.2,30.12,North,0,6.0,8.0,56,0.05,,,0.15,meteohub,2013-03-02 16:27:00,
2013-03-02 11:28:00,58.8,43.7,30.13,North,0,4.0,8.0,57,0.05,,,0.15,meteohub,2013-03-02 16:28:00,
2013-03-02 11:32:00,59.0,42.8,30.12,NE,45,4.0,7.0,55,0.04,,,0.15,meteohub,2013-03-02 16:32:00,
2013-03-02 11:33:00,59.0,42.8,30.12,NE,45,4.0,7.0,55,0.04,,,0.15,meteohub,2013-03-02 16:33:00,
2013-03-02 11:35:00,58.6,42.4,30.12,SW,225,4.0,8.0,55,0.06,,,0.18,meteohub,2013-03-02 16:35:00,
2013-03-02 11:37:00,58.6,43.0,30.12,NW,315,6.0,8.0,56,0.06,,,0.18,meteohub,2013-03-02 16:37:00,
2013-03-02 11:39:00,58.6,43.0,30.12,North,0,6.0,8.0,56,0.06,,,0.18,meteohub,2013-03-02 16:39:00,
2013-03-02 11:41:00,58.3,42.3,30.12,NE,45,6.0,8.0,55,0.06,,,0.18,meteohub,2013-03-02 16:41:00,
2013-03-02 11:42:00,58.1,42.1,30.12,West,270,8.0,8.0,55,0.06,,,0.18,meteohub,2013-03-02 16:42:00,
2013-03-02 11:44:00,57.9,41.9,30.12,SW,225,8.0,8.0,55,0.06,,,0.18,meteohub,2013-03-02 16:44:00,
2013-03-02 11:46:00,57.9,42.3,30.12,NW,315,4.0,8.0,56,0.06,,,0.18,meteohub,2013-03-02 16:46:00,
2013-03-02 11:49:00,57.9,41.9,30.12,West,270,4.0,8.0,55,0.06,,,0.18,meteohub,2013-03-02 16:49:00,
2013-03-02 11:50:00,57.9,41.9,30.12,NW,315,6.0,8.0,55,0.06,,,0.18,meteohub,2013-03-02 16:50:00,
2013-03-02 11:51:00,57.7,41.2,30.12,NW,315,5.0,8.0,54,0.06,,,0.18,meteohub,2013-03-02 16:51:00,
2013-03-02 11:52:00,57.7,41.2,30.12,NW,315,8.0,8.0,54,0.06,,,0.18,meteohub,2013-03-02 16:52:00,
2013-03-02 11:55:00,58.1,41.0,30.12,SW,225,6.0,8.0,53,0.06,,,0.18,meteohub,2013-03-02 16:55:00,
2013-03-02 11:57:00,58.5,40.8,30.11,NW,315,5.0,8.0,52,0.06,,,0.18,meteohub,2013-03-02 16:57:00,
2013-03-02 11:58:00,59.0,41.9,30.11,North,0,3.0,8.0,53,0.06,,,0.18,meteohub,2013-03-02 16:58:00,
2013-03-02 12:00:00,59.4,42.3,30.12,NE,45,4.0,10.0,53,0.09,,,0.21,meteohub,2013-03-02 17:00:00,
2013-03-02 12:01:00,59.5,41.9,30.11,West,270,12.0,12.0,52,0.09,,,0.21,meteohub,2013-03-02 17:01:00,
2013-03-02 12:02:00,59.4,41.2,30.12,West,270,7.0,10.0,51,0.09,,,0.21,meteohub,2013-03-02 17:02:00,
2013-03-02 12:04:00,59.2,41.0,30.11,NW,315,4.0,10.0,51,0.09,,,0.21,meteohub,2013-03-02 17:04:00,
2013-03-02 12:05:00,59.2,41.5,30.11,SW,225,4.0,12.0,52,0.08,,,0.21,meteohub,2013-03-02 17:05:00,
2013-03-02 12:07:00,59.4,41.7,30.11,North,0,4.0,12.0,52,0.08,,,0.21,meteohub,2013-03-02 17:07:00,
2013-03-02 12:10:00,59.4,41.2,30.11,NW,315,4.0,13.0,51,0.06,,,0.21,meteohub,2013-03-02 17:10:00,
2013-03-02 12:12:00,59.2,41.0,30.11,North,0,5.0,13.0,51,0.06,,,0.21,meteohub,2013-03-02 17:12:00,
2013-03-02 12:13:00,59.2,41.5,30.11,North,0,4.0,13.0,52,0.06,,,0.21,meteohub,2013-03-02 17:13:00,
2013-03-02 12:17:00,59.2,41.5,30.11,NW,315,5.0,13.0,52,0.06,,,0.21,meteohub,2013-03-02 17:17:00,
2013-03-02 12:18:00,59.0,41.4,30.11,NE,45,4.0,13.0,52,0.06,,,0.21,meteohub,2013-03-02 17:18:00,
2013-03-02 12:19:00,59.2,42.1,30.11,SW,225,4.0,13.0,53,0.06,,,0.21,meteohub,2013-03-02 17:19:00,
2013-03-02 12:22:00,59.4,42.3,30.10,North,0,5.0,13.0,53,0.06,,,0.21,meteohub,2013-03-02 17:22:00,
2013-03-02 12:24:00,59.5,42.8,30.10,North,0,4.0,13.0,54,0.06,,,0.21,meteohub,2013-03-02 17:24:00,
2013-03-02 12:25:00,59.7,43.0,30.11,NW,315,5.0,9.0,54,0.06,,,0.21,meteohub,2013-03-02 17:25:00,
2013-03-02 12:26:00,59.7,43.0,30.10,West,270,7.0,9.0,54,0.06,,,0.21,meteohub,2013-03-02 17:26:00,
2013-03-02 12:29:00,60.1,43.3,30.10,SE,135,5.0,9.0,54,0.06,,,0.21,meteohub,2013-03-02 17:29:00,
2013-03-02 12:30:00,60.1,43.3,30.11,North,0,6.0,9.0,54,0.05,,,0.21,meteohub,2013-03-02 17:30:00,
2013-03-02 12:31:00,59.9,42.8,30.11,NW,315,4.0,9.0,53,0.05,,,0.21,meteohub,2013-03-02 17:31:00,
2013-03-02 12:36:00,59.7,42.1,30.10,NE,45,4.0,9.0,52,0.04,,,0.21,meteohub,2013-03-02 17:36:00,
2013-03-02 12:37:00,59.7,42.6,30.10,NE,45,5.0,9.0,53,0.04,,,0.21,meteohub,2013-03-02 17:37:00,
2013-03-02 12:38:00,59.5,42.4,30.10,North,0,4.0,9.0,53,0.04,,,0.21,meteohub,2013-03-02 17:38:00,
2013-03-02 12:42:00,59.4,42.8,30.10,NW,315,6.0,9.0,54,0.04,,,0.21,meteohub,2013-03-02 17:42:00,
2013-03-02 12:43:00,59.4,42.8,30.10,North,0,5.0,9.0,54,0.04,,,0.21,meteohub,2013-03-02 17:43:00,
2013-03-02 12:44:00,59.4,42.8,30.10,North,0,3.0,9.0,54,0.04,,,0.21,meteohub,2013-03-02 17:44:00,
2013-03-02 12:48:00,59.9,43.2,30.09,North,0,6.0,9.0,54,0.04,,,0.21,meteohub,2013-03-02 17:48:00,
2013-03-02 12:49:00,60.1,43.3,30.09,NW,315,4.0,9.0,54,0.04,,,0.21,meteohub,2013-03-02 17:49:00,
2013-03-02 12:50:00,60.3,43.5,30.09,NW,315,11.0,11.0,54,0.04,,,0.21,meteohub,2013-03-02 17:50:00,
2013-03-02 12:53:00,60.4,43.7,30.09,South,180,5.0,10.0,54,0.04,,,0.21,meteohub,2013-03-02 17:53:00,
2013-03-02 12:54:00,60.4,43.2,30.09,SW,225,3.0,10.0,53,0.04,,,0.21,meteohub,2013-03-02 17:54:00,
2013-03-02 12:55:00,60.4,43.2,30.09,NW,315,4.0,11.0,53,0.04,,,0.21,meteohub,2013-03-02 17:55:00,
2013-03-02 12:58:00,60.8,43.0,30.09,North,0,5.0,11.0,52,0.04,,,0.21,meteohub,2013-03-02 17:58:00,
2013-03-02 13:01:00,60.8,42.6,30.09,NE,45,4.0,11.0,51,0.00,,,0.21,meteohub,2013-03-02 18:01:00,
2013-03-02 13:04:00,59.9,42.3,30.09,West,270,8.0,11.0,52,0.00,,,0.21,meteohub,2013-03-02 18:04:00,
2013-03-02 13:05:00,59.7,42.6,30.09,North,0,6.0,11.0,53,0.00,,,0.21,meteohub,2013-03-02 18:05:00,
2013-03-02 13:06:00,59.7,42.6,30.09,North,0,6.0,11.0,53,0.00,,,0.21,meteohub,2013-03-02 18:06:00,
2013-03-02 13:07:00,59.2,42.1,30.09,NE,45,6.0,11.0,53,0.00,,,0.21,meteohub,2013-03-02 18:07:00,
2013-03-02 13:09:00,59.0,41.9,30.09,East,90,4.0,11.0,53,0.00,,,0.21,meteohub,2013-03-02 18:09:00,
2013-03-02 13:11:00,58.6,42.1,30.09,West,270,5.0,8.0,54,0.00,,,0.21,meteohub,2013-03-02 18:11:00,
2013-03-02 13:12:00,58.5,42.4,30.09,NW,315,8.0,8.0,55,0.00,,,0.21,meteohub,2013-03-02 18:12:00,
2013-03-02 13:16:00,58.1,42.4,30.08,NW,315,3.0,8.0,56,0.00,,,0.21,meteohub,2013-03-02 18:16:00,
2013-03-02 13:18:00,58.1,42.4,30.08,SW,225,8.0,8.0,56,0.00,,,0.21,meteohub,2013-03-02 18:18:00,
2013-03-02 13:21:00,58.3,43.2,30.08,NE,45,4.0,8.0,57,0.00,,,0.21,meteohub,2013-03-02 18:21:00,
2013-03-02 13:22:00,58.3,43.2,30.08,NW,315,3.0,8.0,57,0.00,,,0.21,meteohub,2013-03-02 18:22:00,
2013-03-02 13:24:00,58.3,43.2,30.08,North,0,5.0,8.0,57,0.00,,,0.21,meteohub,2013-03-02 18:24:00,
2013-03-02 13:27:00,58.6,43.0,30.08,NE,45,6.0,8.0,56,0.00,,,0.21,meteohub,2013-03-02 18:27:00,
2013-03-02 13:29:00,58.8,43.2,30.08,West,270,8.0,8.0,56,0.00,,,0.21,meteohub,2013-03-02 18:29:00,
2013-03-02 13:31:00,59.0,42.8,30.07,SW,225,8.0,14.0,55,0.00,,,0.21,meteohub,2013-03-02 18:31:00,
2013-03-02 13:34:00,59.2,43.0,30.07,NE,45,3.0,14.0,55,0.00,,,0.21,meteohub,2013-03-02 18:34:00,
2013-03-02 13:35:00,59.2,43.0,30.07,NW,315,2.0,14.0,55,0.00,,,0.21,meteohub,2013-03-02 18:35:00,
2013-03-02 13:36:00,59.5,43.3,30.07,West,270,6.0,14.0,55,0.00,,,0.21,meteohub,2013-03-02 18:36:00,
2013-03-02 13:40:00,60.1,43.3,30.07,NW,315,4.0,14.0,54,0.00,,,0.21,meteohub,2013-03-02 18:40:00,
2013-03-02 13:41:00,60.3,43.5,30.06,NW,315,3.0,14.0,54,0.00,,,0.21,meteohub,2013-03-02 18:41:00,
2013-03-02 13:43:00,60.8,43.5,30.06,NW,315,6.0,14.0,53,0.00,,,0.21,meteohub,2013-03-02 18:43:00,
2013-03-02 13:45:00,61.2,43.3,30.06,East,90,7.0,14.0,52,0.00,,,0.21,meteohub,2013-03-02 18:45:00,
2013-03-02 13:46:00,61.2,43.3,30.06,West,270,4.0,8.0,52,0.00,,,0.21,meteohub,2013-03-02 18:46:00,
2013-03-02 13:47:00,61.2,43.3,30.06,West,270,4.0,8.0,52,0.00,,,0.21,meteohub,2013-03-02 18:47:00,
2013-03-02 13:49:00,61.3,43.0,30.06,SW,225,7.0,8.0,51,0.00,,,0.21,meteohub,2013-03-02 18:49:00,
2013-03-02 13:51:00,61.3,43.0,30.06,North,0,6.0,7.0,51,0.00,,,0.21,meteohub,2013-03-02 18:51:00,
2013-03-02 13:53:00,61.2,41.9,30.06,North,0,8.0,8.0,49,0.00,,,0.21,meteohub,2013-03-02 18:53:00,
2013-03-02 13:54:00,60.8,41.0,30.06,NW,315,3.0,7.0,48,0.00,,,0.21,meteohub,2013-03-02 18:54:00,
2013-03-02 13:56:00,60.3,41.5,30.06,North,0,4.0,9.0,50,0.00,,,0.21,meteohub,2013-03-02 18:56:00,
2013-03-02 13:57:00,60.3,42.1,30.06,North,0,8.0,9.0,51,0.00,,,0.21,meteohub,2013-03-02 18:57:00,
2013-03-02 13:59:00,60.3,42.1,30.06,SW,225,4.0,9.0,51,0.00,,,0.21,meteohub,2013-03-02 18:59:00,
2013-03-02 14:00:00,60.3,42.1,30.06,NE,45,4.0,9.0,51,0.00,,,0.21,meteohub,2013-03-02 19:00:00,
2013-03-02 14:02:00,60.3,42.6,30.06,North,0,4.0,9.0,52,0.00,,,0.21,meteohub,2013-03-02 19:02:00,
2013-03-02 14:04:00,60.3,43.0,30.06,West,270,5.0,9.0,53,0.00,,,0.21,meteohub,2013-03-02 19:04:00,
2013-03-02 14:05:00,60.4,43.2,30.06,West,270,9.0,9.0,53,0.00,,,0.21,meteohub,2013-03-02 19:05:00,
2013-03-02 14:07:00,60.3,41.5,30.06,NW,315,7.0,8.0,50,0.00,,,0.21,meteohub,2013-03-02 19:07:00,
2013-03-02 14:08:00,60.1,41.9,30.06,East,90,3.0,8.0,51,0.00,,,0.21,meteohub,2013-03-02 19:08:00,
2013-03-02 14:10:00,60.1,42.4,30.05,South,180,9.0,9.0,52,0.00,,,0.21,meteohub,2013-03-02 19:10:00,
2013-03-02 14:11:00,60.1,42.4,30.05,West,270,8.0,9.0,52,0.00,,,0.21,meteohub,2013-03-02 19:11:00,
2013-03-02 14:12:00,60.3,42.1,30.05,NE,45,4.0,9.0,51,0.00,,,0.21,meteohub,2013-03-02 19:12:00,
2013-03-02 14:13:00,59.9,41.7,30.06,West,270,7.0,9.0,51,0.00,,,0.21,meteohub,2013-03-02 19:13:00,
2013-03-02 14:16:00,59.5,41.4,30.05,North,0,4.0,9.0,51,0.00,,,0.21,meteohub,2013-03-02 19:16:00,
2013-03-02 14:17:00,59.5,41.4,30.05,North,0,4.0,9.0,51,0.00,,,0.21,meteohub,2013-03-02 19:17:00,
2013-03-02 14:18:00,59.2,41.5,30.06,NW,315,4.0,9.0,52,0.00,,,0.21,meteohub,2013-03-02 19:18:00,
2013-03-02 14:19:00,59.2,42.1,30.05,NW,315,6.0,9.0,53,0.00,,,0.21,meteohub,2013-03-02 19:19:00,
2013-03-02 14:21:00,59.4,41.7,30.05,NW,315,8.0,9.0,52,0.00,,,0.21,meteohub,2013-03-02 19:21:00,
2013-03-02 14:24:00,59.4,42.3,30.05,WNW,293,4.0,9.0,53,0.00,,,0.21,meteohub,2013-03-02 19:24:00,
2013-03-02 14:25:00,59.5,42.4,30.05,NE,45,5.0,9.0,53,0.00,,,0.21,meteohub,2013-03-02 19:25:00,
2013-03-02 14:26:00,59.5,42.4,30.05,North,0,5.0,9.0,53,0.00,,,0.21,meteohub,2013-03-02 19:26:00,
2013-03-02 14:27:00,59.5,41.9,30.05,NE,45,5.0,9.0,52,0.00,,,0.21,meteohub,2013-03-02 19:27:00,
2013-03-02 14:29:00,59.4,41.2,30.05,NW,315,4.0,9.0,51,0.00,,,0.21,meteohub,2013-03-02 19:29:00,
2013-03-02 14:30:00,59.2,41.5,30.05,North,0,7.0,8.0,52,0.00,,,0.21,meteohub,2013-03-02 19:30:00,
2013-03-02 14:32:00,59.0,41.9,30.04,NW,315,4.0,8.0,53,0.00,,,0.21,meteohub,2013-03-02 19:32:00,
2013-03-02 14:33:00,59.2,42.1,30.04,North,0,11.0,11.0,53,0.00,,,0.21,meteohub,2013-03-02 19:33:00,
2013-03-02 14:35:00,59.7,42.6,30.04,NE,45,7.0,11.0,53,0.00,,,0.21,meteohub,2013-03-02 19:35:00,
2013-03-02 14:37:00,60.1,42.4,30.04,North,0,8.0,11.0,52,0.00,,,0.21,meteohub,2013-03-02 19:37:00,
2013-03-02 14:38:00,60.1,42.4,30.04,North,0,8.0,11.0,52,0.00,,,0.21,meteohub,2013-03-02 19:38:00,
2013-03-02 14:41:00,59.9,41.2,30.04,NW,315,8.0,11.0,50,0.00,,,0.21,meteohub,2013-03-02 19:41:00,
2013-03-02 14:43:00,60.3,41.5,30.04,North,0,5.0,11.0,50,0.00,,,0.21,meteohub,2013-03-02 19:43:00,
2013-03-02 14:45:00,60.4,42.3,30.04,SW,225,6.0,11.0,51,0.00,,,0.21,meteohub,2013-03-02 19:45:00,
2013-03-02 14:46:00,60.6,41.9,30.04,North,0,3.0,11.0,50,0.00,,,0.21,meteohub,2013-03-02 19:46:00,
2013-03-02 14:47:00,60.6,41.9,30.04,WNW,293,3.0,11.0,50,0.00,,,0.21,meteohub,2013-03-02 19:47:00,
2013-03-02 14:49:00,60.8,41.5,30.04,NE,45,8.0,11.0,49,0.00,,,0.21,meteohub,2013-03-02 19:49:00,
2013-03-02 14:50:00,60.6,41.9,30.04,SW,225,8.0,11.0,50,0.00,,,0.21,meteohub,2013-03-02 19:50:00,
2013-03-02 14:52:00,60.8,41.5,30.04,NW,315,5.0,11.0,49,0.00,,,0.21,meteohub,2013-03-02 19:52:00,
2013-03-02 14:53:00,61.0,41.7,30.05,North,0,3.0,11.0,49,0.00,,,0.21,meteohub,2013-03-02 19:53:00,
2013-03-02 14:56:00,61.2,41.4,30.04,East,90,5.0,11.0,48,0.00,,,0.21,meteohub,2013-03-02 19:56:00,
2013-03-02 14:57:00,61.0,41.7,30.04,North,0,5.0,11.0,49,0.00,,,0.21,meteohub,2013-03-02 19:57:00,
2013-03-02 14:58:00,61.0,41.7,30.04,North,0,5.0,11.0,49,0.00,,,0.21,meteohub,2013-03-02 19:58:00,
2013-03-02 14:59:00,61.0,41.7,30.04,WSW,248,6.0,11.0,49,0.00,,,0.21,meteohub,2013-03-02 19:59:00,
2013-03-02 15:01:00,61.2,41.9,30.04,South,180,6.0,11.0,49,0.00,,,0.21,meteohub,2013-03-02 20:01:00,
2013-03-02 15:03:00,61.3,42.1,30.05,NW,315,7.0,11.0,49,0.00,,,0.21,meteohub,2013-03-02 20:03:00,
2013-03-02 15:04:00,61.0,40.6,30.05,NE,45,3.0,11.0,47,0.00,,,0.21,meteohub,2013-03-02 20:04:00,
2013-03-02 15:05:00,61.0,40.6,30.05,NE,45,3.0,8.0,47,0.00,,,0.21,meteohub,2013-03-02 20:05:00,
2013-03-02 15:08:00,61.0,40.6,30.04,NW,315,3.0,8.0,47,0.00,,,0.21,meteohub,2013-03-02 20:08:00,
2013-03-02 15:10:00,60.4,40.6,30.05,NW,315,6.0,7.0,48,0.00,,,0.21,meteohub,2013-03-02 20:10:00,
2013-03-02 15:11:00,60.3,40.5,30.05,North,0,4.0,7.0,48,0.00,,,0.21,meteohub,2013-03-02 20:11:00,
2013-03-02 15:14:00,59.7,40.5,30.05,NW,315,6.0,7.0,49,0.00,,,0.21,meteohub,2013-03-02 20:14:00,
2013-03-02 15:16:00,59.5,40.3,30.05,North,0,4.0,8.0,49,0.00,,,0.21,meteohub,2013-03-02 20:16:00,
2013-03-02 15:17:00,59.5,40.3,30.04,South,180,7.0,8.0,49,0.00,,,0.21,meteohub,2013-03-02 20:17:00,
2013-03-02 15:20:00,59.7,41.0,30.05,NW,315,8.0,8.0,50,0.00,,,0.21,meteohub,2013-03-02 20:20:00,
2013-03-02 15:22:00,59.7,41.0,30.04,NE,45,4.0,8.0,50,0.00,,,0.21,meteohub,2013-03-02 20:22:00,
2013-03-02 15:23:00,59.7,41.0,30.04,NW,315,4.0,8.0,50,0.00,,,0.21,meteohub,2013-03-02 20:23:00,
2013-03-02 15:27:00,59.7,41.0,30.04,NE,45,5.0,8.0,50,0.00,,,0.21,meteohub,2013-03-02 20:27:00,
2013-03-02 15:28:00,59.5,40.3,30.04,NE,45,5.0,8.0,49,0.00,,,0.21,meteohub,2013-03-02 20:28:00,
2013-03-02 15:29:00,59.5,40.3,30.04,NW,315,3.0,8.0,49,0.00,,,0.21,meteohub,2013-03-02 20:29:00,
2013-03-02 15:32:00,59.5,40.3,30.04,NW,315,2.0,8.0,49,0.00,,,0.21,meteohub,2013-03-02 20:32:00,
2013-03-02 15:33:00,59.7,41.0,30.04,SW,225,4.0,8.0,50,0.00,,,0.21,meteohub,2013-03-02 20:33:00,
2013-03-02 15:37:00,60.4,40.6,30.04,NW,315,8.0,8.0,48,0.00,,,0.21,meteohub,2013-03-02 20:37:00,
2013-03-02 15:38:00,60.4,40.6,30.04,NW,315,8.0,8.0,48,0.00,,,0.21,meteohub,2013-03-02 20:38:00,
2013-03-02 15:41:00,59.9,40.6,30.04,North,0,3.0,8.0,49,0.00,,,0.21,meteohub,2013-03-02 20:41:00,
2013-03-02 15:42:00,59.7,40.5,30.04,North,0,4.0,8.0,49,0.00,,,0.21,meteohub,2013-03-02 20:42:00,
2013-03-02 15:43:00,59.7,40.5,30.04,North,0,8.0,8.0,49,0.00,,,0.21,meteohub,2013-03-02 20:43:00,
2013-03-02 15:46:00,59.2,39.6,30.04,North,0,6.0,8.0,48,0.00,,,0.21,meteohub,2013-03-02 20:46:00,
2013-03-02 15:49:00,59.0,40.5,30.04,NE,45,4.0,8.0,50,0.00,,,0.21,meteohub,2013-03-02 20:49:00,
2013-03-02 15:51:00,59.0,40.5,30.04,North,0,4.0,8.0,50,0.00,,,0.21,meteohub,2013-03-02 20:51:00,
2013-03-02 15:52:00,58.8,41.2,30.04,North,0,2.0,8.0,52,0.00,,,0.21,meteohub,2013-03-02 20:52:00,
2013-03-02 15:55:00,58.6,41.5,30.04,West,270,4.0,8.0,53,0.00,,,0.21,meteohub,2013-03-02 20:55:00,
2013-03-02 15:57:00,59.0,41.4,30.04,North,0,2.0,8.0,52,0.00,,,0.21,meteohub,2013-03-02 20:57:00,
2013-03-02 15:58:00,59.2,42.1,30.04,SE,135,3.0,8.0,53,0.00,,,0.21,meteohub,2013-03-02 20:58:00,
2013-03-02 16:00:00,59.0,41.9,30.04,NW,315,3.0,8.0,53,0.00,,,0.21,meteohub,2013-03-02 21:00:00,
2013-03-02 16:03:00,58.6,42.1,30.04,WNW,293,4.0,8.0,54,0.00,,,0.21,meteohub,2013-03-02 21:03:00,
2013-03-02 16:05:00,58.3,40.8,30.04,NE,45,3.0,8.0,52,0.00,,,0.21,meteohub,2013-03-02 21:05:00,
2013-03-02 16:06:00,58.3,40.8,30.04,NE,45,3.0,8.0,52,0.00,,,0.21,meteohub,2013-03-02 21:06:00,
2013-03-02 16:07:00,58.1,40.6,30.04,SW,225,3.0,8.0,52,0.00,,,0.21,meteohub,2013-03-02 21:07:00,
2013-03-02 16:08:00,58.3,41.2,30.04,SW,225,4.0,8.0,53,0.00,,,0.21,meteohub,2013-03-02 21:08:00,
2013-03-02 16:10:00,58.3,40.8,30.04,NW,315,3.0,7.0,52,0.00,,,0.21,meteohub,2013-03-02 21:10:00,
2013-03-02 16:12:00,58.1,40.6,30.04,North,0,8.0,8.0,52,0.00,,,0.21,meteohub,2013-03-02 21:12:00,
2013-03-02 16:14:00,57.7,40.3,30.04,North,0,3.0,7.0,52,0.00,,,0.21,meteohub,2013-03-02 21:14:00,
2013-03-02 16:16:00,57.7,40.6,30.04,NW,315,6.0,8.0,53,0.00,,,0.21,meteohub,2013-03-02 21:16:00,
2013-03-02 16:17:00,58.3,41.7,30.04,West,270,3.0,8.0,54,0.00,,,0.21,meteohub,2013-03-02 21:17:00,
2013-03-02 16:19:00,58.6,42.1,30.04,NE,45,3.0,8.0,54,0.00,,,0.21,meteohub,2013-03-02 21:19:00,
2013-03-02 16:21:00,58.6,42.1,30.03,NW,315,5.0,8.0,54,0.00,,,0.21,meteohub,2013-03-02 21:21:00,
2013-03-02 16:22:00,58.6,41.5,30.03,NE,45,4.0,8.0,53,0.00,,,0.21,meteohub,2013-03-02 21:22:00,
2013-03-02 16:24:00,58.6,41.5,30.04,NE,45,4.0,8.0,53,0.00,,,0.21,meteohub,2013-03-02 21:24:00,
2013-03-02 16:27:00,58.5,41.4,30.03,North,0,4.0,8.0,53,0.00,,,0.21,meteohub,2013-03-02 21:27:00,
2013-03-02 16:29:00,58.3,41.7,30.03,North,0,4.0,8.0,54,0.00,,,0.21,meteohub,2013-03-02 21:29:00,
2013-03-02 16:31:00,58.3,41.7,30.03,NW,315,4.0,8.0,54,0.00,,,0.21,meteohub,2013-03-02 21:31:00,
2013-03-02 16:34:00,58.1,41.5,30.03,NW,315,8.0,8.0,54,0.00,,,0.21,meteohub,2013-03-02 21:34:00,
2013-03-02 16:35:00,57.9,41.4,30.04,West,270,2.0,8.0,54,0.00,,,0.21,meteohub,2013-03-02 21:35:00,
2013-03-02 16:37:00,57.6,41.0,30.03,SW,225,3.0,8.0,54,0.00,,,0.21,meteohub,2013-03-02 21:37:00,
2013-03-02 16:40:00,57.2,41.2,30.04,NW,315,6.0,8.0,55,0.00,,,0.21,meteohub,2013-03-02 21:40:00,
2013-03-02 16:42:00,57.2,41.2,30.04,NW,315,8.0,8.0,55,0.00,,,0.21,meteohub,2013-03-02 21:42:00,
2013-03-02 16:43:00,57.0,41.5,30.04,SE,135,3.0,8.0,56,0.00,,,0.21,meteohub,2013-03-02 21:43:00,
2013-03-02 16:44:00,57.0,41.5,30.03,NW,315,4.0,8.0,56,0.00,,,0.21,meteohub,2013-03-02 21:44:00,
2013-03-02 16:47:00,56.7,41.2,30.03,East,90,4.0,8.0,56,0.00,,,0.21,meteohub,2013-03-02 21:47:00,
2013-03-02 16:48:00,56.7,41.2,30.03,NW,315,6.0,8.0,56,0.00,,,0.21,meteohub,2013-03-02 21:48:00,
2013-03-02 16:49:00,56.5,41.0,30.03,NW,315,6.0,8.0,56,0.00,,,0.21,meteohub,2013-03-02 21:49:00,
2013-03-02 16:51:00,56.5,41.0,30.04,North,0,4.0,8.0,56,0.00,,,0.21,meteohub,2013-03-02 21:51:00,
2013-03-02 16:53:00,56.5,41.4,30.04,North,0,2.0,8.0,57,0.00,,,0.21,meteohub,2013-03-02 21:53:00,
2013-03-02 16:55:00,56.7,41.5,30.04,NW,315,4.0,8.0,57,0.00,,,0.21,meteohub,2013-03-02 21:55:00,
2013-03-02 16:57:00,56.8,41.7,30.04,North,0,4.0,8.0,57,0.00,,,0.21,meteohub,2013-03-02 21:57:00,
2013-03-02 17:00:00,56.7,41.5,30.04,West,270,4.0,8.0,57,0.00,,,0.21,meteohub,2013-03-02 22:00:00,
2013-03-02 17:02:00,56.5,41.4,30.04,North,0,3.0,8.0,57,0.00,,,0.21,meteohub,2013-03-02 22:02:00,
2013-03-02 17:05:00,56.3,41.2,30.04,North,0,2.0,5.0,57,0.00,,,0.21,meteohub,2013-03-02 22:05:00,
2013-03-02 17:06:00,56.3,41.2,30.04,North,0,4.0,5.0,57,0.00,,,0.21,meteohub,2013-03-02 22:06:00,
2013-03-02 17:07:00,56.3,41.2,30.04,NW,315,3.0,5.0,57,0.00,,,0.21,meteohub,2013-03-02 22:07:00,
2013-03-02 17:08:00,56.3,41.2,30.04,North,0,4.0,5.0,57,0.00,,,0.21,meteohub,2013-03-02 22:08:00,
2013-03-02 17:11:00,56.1,41.2,30.04,NW,315,5.0,5.0,57,0.00,,,0.21,meteohub,2013-03-02 22:11:00,
2013-03-02 17:12:00,55.9,41.0,30.04,North,0,4.0,5.0,57,0.00,,,0.21,meteohub,2013-03-02 22:12:00,
2013-03-02 17:13:00,55.9,41.0,30.05,NW,315,3.0,5.0,57,0.00,,,0.21,meteohub,2013-03-02 22:13:00,
2013-03-02 17:14:00,55.8,40.8,30.04,NW,315,4.0,5.0,57,0.00,,,0.21,meteohub,2013-03-02 22:14:00,
2013-03-02 17:17:00,55.6,41.0,30.04,NE,45,2.0,5.0,58,0.00,,,0.21,meteohub,2013-03-02 22:17:00,
2013-03-02 17:18:00,55.6,41.0,30.04,NW,315,2.0,5.0,58,0.00,,,0.21,meteohub,2013-03-02 22:18:00,
2013-03-02 17:19:00,55.6,41.0,30.04,SW,225,4.0,5.0,58,0.00,,,0.21,meteohub,2013-03-02 22:19:00,
2013-03-02 17:20:00,55.6,41.0,30.04,SW,225,8.0,8.0,58,0.00,,,0.21,meteohub,2013-03-02 22:20:00,
2013-03-02 17:23:00,55.8,41.7,30.04,NW,315,3.0,5.0,59,0.00,,,0.21,meteohub,2013-03-02 22:23:00,
2013-03-02 17:24:00,55.8,41.7,30.04,NW,315,4.0,5.0,59,0.00,,,0.21,meteohub,2013-03-02 22:24:00,
2013-03-02 17:25:00,55.8,41.7,30.05,NW,315,3.0,8.0,59,0.00,,,0.21,meteohub,2013-03-02 22:25:00,
2013-03-02 17:26:00,55.8,41.7,30.05,NE,45,4.0,8.0,59,0.00,,,0.21,meteohub,2013-03-02 22:26:00,
2013-03-02 17:30:00,55.4,40.8,30.04,NW,315,4.0,8.0,58,0.00,,,0.21,meteohub,2013-03-02 22:30:00,
2013-03-02 17:31:00,55.4,40.5,30.04,West,270,5.0,8.0,57,0.00,,,0.21,meteohub,2013-03-02 22:31:00,
2013-03-02 17:33:00,55.2,40.6,30.04,West,270,4.0,8.0,58,0.00,,,0.21,meteohub,2013-03-02 22:33:00,
2013-03-02 17:37:00,55.2,41.5,30.05,NW,315,2.0,8.0,60,0.00,,,0.21,meteohub,2013-03-02 22:37:00,
2013-03-02 17:40:00,55.4,41.4,30.04,North,0,2.0,6.0,59,0.00,,,0.21,meteohub,2013-03-02 22:40:00,
2013-03-02 17:41:00,55.4,41.4,30.04,NW,315,2.0,6.0,59,0.00,,,0.21,meteohub,2013-03-02 22:41:00,
2013-03-02 17:42:00,55.4,41.4,30.04,North,0,5.0,6.0,59,0.00,,,0.21,meteohub,2013-03-02 22:42:00,
2013-03-02 17:45:00,55.4,41.4,30.04,South,180,2.0,7.0,59,0.00,,,0.21,meteohub,2013-03-02 22:45:00,
2013-03-02 17:46:00,55.4,41.4,30.04,South,180,2.0,7.0,59,0.00,,,0.21,meteohub,2013-03-02 22:46:00,
2013-03-02 17:49:00,55.2,41.5,30.04,NW,315,2.0,7.0,60,0.00,,,0.21,meteohub,2013-03-02 22:49:00,
2013-03-02 17:50:00,55.2,41.5,30.04,NW,315,2.0,7.0,60,0.00,,,0.21,meteohub,2013-03-02 22:50:00,
2013-03-02 17:53:00,55.0,41.4,30.04,North,0,2.0,7.0,60,0.00,,,0.21,meteohub,2013-03-02 22:53:00,
2013-03-02 17:54:00,55.0,41.9,30.04,NE,45,2.0,7.0,61,0.00,,,0.21,meteohub,2013-03-02 22:54:00,
2013-03-02 17:58:00,54.9,41.7,30.04,NW,315,3.0,5.0,61,0.00,,,0.21,meteohub,2013-03-02 22:58:00,
2013-03-02 18:00:00,54.9,41.7,30.04,North,0,4.0,6.0,61,0.00,,,0.21,meteohub,2013-03-02 23:00:00,
2013-03-02 18:01:00,54.9,41.7,30.04,North,0,8.0,8.0,61,0.00,,,0.21,meteohub,2013-03-02 23:01:00,
2013-03-02 18:02:00,54.9,41.7,30.04,NW,315,2.0,6.0,61,0.00,,,0.21,meteohub,2013-03-02 23:02:00,
2013-03-02 18:05:00,54.9,41.7,30.04,NE,45,4.0,6.0,61,0.00,,,0.21,meteohub,2013-03-02 23:05:00,
2013-03-02 18:06:00,54.9,41.7,30.04,East,90,4.0,8.0,61,0.00,,,0.21,meteohub,2013-03-02 23:06:00,
2013-03-02 18:08:00,54.9,41.7,30.04,East,90,4.0,8.0,61,0.00,,,0.21,meteohub,2013-03-02 23:08:00,
2013-03-02 18:12:00,54.9,41.7,30.04,North,0,6.0,8.0,61,0.00,,,0.21,meteohub,2013-03-02 23:12:00,
2013-03-02 18:13:00,54.9,41.7,30.04,SW,225,3.0,8.0,61,0.00,,,0.21,meteohub,2013-03-02 23:13:00,
2013-03-02 18:18:00,54.7,41.5,30.04,East,90,4.0,8.0,61,0.00,,,0.21,meteohub,2013-03-02 23:18:00,
2013-03-02 18:19:00,54.7,41.5,30.04,North,0,6.0,8.0,61,0.00,,,0.21,meteohub,2013-03-02 23:19:00,
2013-03-02 18:24:00,54.7,41.5,30.04,SE,135,5.0,7.0,61,0.00,,,0.21,meteohub,2013-03-02 23:24:00,
2013-03-02 18:25:00,54.7,41.5,30.04,SE,135,5.0,6.0,61,0.00,,,0.21,meteohub,2013-03-02 23:25:00,
2013-03-02 18:26:00,54.5,41.4,30.04,North,0,2.0,6.0,61,0.00,,,0.21,meteohub,2013-03-02 23:26:00,
2013-03-02 18:30:00,54.5,41.4,30.04,NE,45,4.0,6.0,61,0.00,,,0.21,meteohub,2013-03-02 23:30:00,
2013-03-02 18:31:00,54.5,41.4,30.04,North,0,3.0,6.0,61,0.00,,,0.21,meteohub,2013-03-02 23:31:00,
2013-03-02 18:32:00,54.3,41.2,30.04,North,0,3.0,6.0,61,0.00,,,0.21,meteohub,2013-03-02 23:32:00,
2013-03-02 18:36:00,54.3,41.2,30.04,NW,315,4.0,5.0,61,0.00,,,0.21,meteohub,2013-03-02 23:36:00,
2013-03-02 18:37:00,54.3,41.2,30.04,SW,225,3.0,5.0,61,0.00,,,0.21,meteohub,2013-03-02 23:37:00,
2013-03-02 18:38:00,54.3,41.2,30.04,West,270,5.0,5.0,61,0.00,,,0.21,meteohub,2013-03-02 23:38:00,
2013-03-02 18:41:00,54.3,41.2,30.04,North,0,4.0,6.0,61,0.00,,,0.21,meteohub,2013-03-02 23:41:00,
2013-03-02 18:42:00,54.3,41.2,30.04,North,0,4.0,6.0,61,0.00,,,0.21,meteohub,2013-03-02 23:42:00,
2013-03-02 18:43:00,54.3,41.2,30.04,North,0,3.0,6.0,61,0.00,,,0.21,meteohub,2013-03-02 23:43:00,
2013-03-02 18:46:00,54.3,41.2,30.04,North,0,3.0,6.0,61,0.00,,,0.21,meteohub,2013-03-02 23:46:00,
2013-03-02 18:47:00,54.3,41.2,30.04,North,0,3.0,6.0,61,0.00,,,0.21,meteohub,2013-03-02 23:47:00,
2013-03-02 18:48:00,54.1,41.0,30.04,NW,315,2.0,6.0,61,0.00,,,0.21,meteohub,2013-03-02 23:48:00,
2013-03-02 18:51:00,54.1,41.0,30.04,West,270,3.0,5.0,61,0.00,,,0.21,meteohub,2013-03-02 23:51:00,
2013-03-02 18:52:00,54.1,41.0,30.04,West,270,3.0,5.0,61,0.00,,,0.21,meteohub,2013-03-02 23:52:00,
2013-03-02 18:53:00,54.1,41.0,30.04,West,270,3.0,5.0,61,0.00,,,0.21,meteohub,2013-03-02 23:53:00,
2013-03-02 18:54:00,54.1,41.0,30.04,North,0,3.0,5.0,61,0.00,,,0.21,meteohub,2013-03-02 23:54:00,
2013-03-02 18:57:00,54.1,41.0,30.04,NW,315,3.0,4.0,61,0.00,,,0.21,meteohub,2013-03-02 23:57:00,
2013-03-02 18:59:00,54.1,41.0,30.04,North,0,4.0,4.0,61,0.00,,,0.21,meteohub,2013-03-02 23:59:00,
2013-03-02 19:00:00,54.1,41.0,30.04,East,90,4.0,4.0,61,0.00,,,0.21,meteohub,2013-03-03 00:00:00,
2013-03-02 19:04:00,54.1,40.6,30.04,North,0,7.0,7.0,60,0.00,,,0.21,meteohub,2013-03-03 00:04:00,
2013-03-02 19:05:00,54.1,40.6,30.04,NE,45,4.0,6.0,60,0.00,,,0.21,meteohub,2013-03-03 00:05:00,
2013-03-02 19:06:00,54.1,40.6,30.04,NE,45,3.0,6.0,60,0.00,,,0.21,meteohub,2013-03-03 00:06:00,
2013-03-02 19:08:00,54.1,40.6,30.04,NE,45,2.0,6.0,60,0.00,,,0.21,meteohub,2013-03-03 00:08:00,
2013-03-02 19:09:00,54.1,41.0,30.04,North,0,4.0,6.0,61,0.00,,,0.21,meteohub,2013-03-03 00:09:00,
2013-03-02 19:12:00,54.1,40.6,30.04,North,0,2.0,7.0,60,0.00,,,0.21,meteohub,2013-03-03 00:12:00,
2013-03-02 19:13:00,54.1,40.6,30.04,North,0,4.0,7.0,60,0.00,,,0.21,meteohub,2013-03-03 00:13:00,
2013-03-02 19:15:00,54.0,40.5,30.04,NW,315,5.0,7.0,60,0.00,,,0.21,meteohub,2013-03-03 00:15:00,
2013-03-02 19:18:00,54.0,40.5,30.04,NW,315,7.0,7.0,60,0.00,,,0.21,meteohub,2013-03-03 00:18:00,
2013-03-02 19:19:00,54.0,40.5,30.04,NW,315,3.0,7.0,60,0.00,,,0.21,meteohub,2013-03-03 00:19:00,
2013-03-02 19:20:00,54.1,40.6,30.04,North,0,2.0,7.0,60,0.00,,,0.21,meteohub,2013-03-03 00:20:00,
2013-03-02 19:24:00,54.1,40.6,30.04,NW,315,2.0,7.0,60,0.00,,,0.21,meteohub,2013-03-03 00:24:00,
2013-03-02 19:26:00,54.1,40.6,30.05,North,0,2.0,7.0,60,0.00,,,0.21,meteohub,2013-03-03 00:26:00,
2013-03-02 19:29:00,54.0,40.5,30.05,WNW,293,2.0,7.0,60,0.00,,,0.21,meteohub,2013-03-03 00:29:00,
2013-03-02 19:31:00,54.0,40.5,30.05,North,0,2.0,7.0,60,0.00,,,0.21,meteohub,2013-03-03 00:31:00,
2013-03-02 19:33:00,54.0,40.5,30.05,SW,225,4.0,7.0,60,0.00,,,0.21,meteohub,2013-03-03 00:33:00,
2013-03-02 19:34:00,54.0,40.8,30.05,North,0,3.0,7.0,61,0.00,,,0.21,meteohub,2013-03-03 00:34:00,
2013-03-02 19:37:00,54.0,40.5,30.05,West,270,2.0,4.0,60,0.00,,,0.21,meteohub,2013-03-03 00:37:00,
2013-03-02 19:39:00,54.0,39.9,30.05,North,0,5.0,5.0,59,0.00,,,0.21,meteohub,2013-03-03 00:39:00,
2013-03-02 19:40:00,53.8,39.7,30.05,SW,225,4.0,5.0,59,0.00,,,0.21,meteohub,2013-03-03 00:40:00,
2013-03-02 19:42:00,53.8,39.7,30.05,NW,315,2.0,5.0,59,0.00,,,0.21,meteohub,2013-03-03 00:42:00,
2013-03-02 19:46:00,54.0,39.6,30.05,NW,315,3.0,5.0,58,0.00,,,0.21,meteohub,2013-03-03 00:46:00,
2013-03-02 19:47:00,54.0,39.6,30.06,North,0,4.0,5.0,58,0.00,,,0.21,meteohub,2013-03-03 00:47:00,
2013-03-02 19:48:00,54.0,39.6,30.05,SE,135,2.0,5.0,58,0.00,,,0.21,meteohub,2013-03-03 00:48:00,
2013-03-02 19:52:00,54.0,39.6,30.05,North,0,2.0,5.0,58,0.00,,,0.21,meteohub,2013-03-03 00:52:00,
2013-03-02 19:53:00,54.0,39.6,30.06,North,0,2.0,5.0,58,0.00,,,0.21,meteohub,2013-03-03 00:53:00,
2013-03-02 19:57:00,54.1,39.7,30.06,North,0,2.0,5.0,58,0.00,,,0.21,meteohub,2013-03-03 00:57:00,
2013-03-02 19:59:00,54.1,39.7,30.06,West,270,2.0,5.0,58,0.00,,,0.21,meteohub,2013-03-03 00:59:00,
2013-03-02 20:02:00,54.1,39.7,30.06,North,0,3.0,5.0,58,0.00,,,0.21,meteohub,2013-03-03 01:02:00,
2013-03-02 20:04:00,54.1,39.2,30.06,North,0,4.0,5.0,57,0.00,,,0.21,meteohub,2013-03-03 01:04:00,
2013-03-02 20:05:00,54.1,39.2,30.06,NW,315,4.0,5.0,57,0.00,,,0.21,meteohub,2013-03-03 01:05:00,
2013-03-02 20:07:00,54.1,39.2,30.06,West,270,2.0,5.0,57,0.00,,,0.21,meteohub,2013-03-03 01:07:00,
2013-03-02 20:08:00,54.3,39.4,30.06,NW,315,4.0,5.0,57,0.00,,,0.21,meteohub,2013-03-03 01:08:00,
2013-03-02 20:10:00,54.3,39.4,30.05,NE,45,4.0,5.0,57,0.00,,,0.21,meteohub,2013-03-03 01:10:00,
2013-03-02 20:11:00,54.3,39.0,30.06,North,0,4.0,5.0,56,0.00,,,0.21,meteohub,2013-03-03 01:11:00,
2013-03-02 20:12:00,54.3,39.0,30.06,NW,315,2.0,5.0,56,0.00,,,0.21,meteohub,2013-03-03 01:12:00,
2013-03-02 20:14:00,54.3,39.0,30.06,NE,45,8.0,8.0,56,0.00,,,0.21,meteohub,2013-03-03 01:14:00,
2013-03-02 20:15:00,54.5,39.2,30.06,SW,225,7.0,7.0,56,0.00,,,0.21,meteohub,2013-03-03 01:15:00,
2013-03-02 20:16:00,54.5,39.2,30.06,North,0,3.0,5.0,56,0.00,,,0.21,meteohub,2013-03-03 01:16:00,
2013-03-02 20:18:00,54.5,39.2,30.06,East,90,2.0,5.0,56,0.00,,,0.21,meteohub,2013-03-03 01:18:00,
2013-03-02 20:20:00,54.5,39.2,30.05,South,180,3.0,8.0,56,0.00,,,0.21,meteohub,2013-03-03 01:20:00,
2013-03-02 20:21:00,54.5,38.7,30.06,West,270,6.0,8.0,55,0.00,,,0.21,meteohub,2013-03-03 01:21:00,
2013-03-02 20:22:00,54.5,38.7,30.06,North,0,2.0,8.0,55,0.00,,,0.21,meteohub,2013-03-03 01:22:00,
2013-03-02 20:24:00,54.5,38.7,30.06,NW,315,9.0,9.0,55,0.00,,,0.21,meteohub,2013-03-03 01:24:00,
2013-03-02 20:25:00,54.5,38.7,30.06,NW,315,4.0,8.0,55,0.00,,,0.21,meteohub,2013-03-03 01:25:00,
2013-03-02 20:27:00,54.5,38.7,30.06,NE,45,4.0,8.0,55,0.00,,,0.21,meteohub,2013-03-03 01:27:00,
2013-03-02 20:29:00,54.5,38.1,30.06,NW,315,4.0,8.0,54,0.00,,,0.21,meteohub,2013-03-03 01:29:00,
2013-03-02 20:30:00,54.5,38.1,30.06,NW,315,4.0,9.0,54,0.00,,,0.21,meteohub,2013-03-03 01:30:00,
2013-03-02 20:31:00,54.5,38.1,30.05,South,180,3.0,9.0,54,0.00,,,0.21,meteohub,2013-03-03 01:31:00,
2013-03-02 20:33:00,54.5,38.1,30.05,SE,135,2.0,9.0,54,0.00,,,0.21,meteohub,2013-03-03 01:33:00,
2013-03-02 20:36:00,54.5,38.1,30.05,North,0,4.0,9.0,54,0.00,,,0.21,meteohub,2013-03-03 01:36:00,
2013-03-02 20:37:00,54.5,38.1,30.05,NE,45,5.0,9.0,54,0.00,,,0.21,meteohub,2013-03-03 01:37:00,
2013-03-02 20:38:00,54.5,37.8,30.05,SW,225,5.0,9.0,53,0.00,,,0.21,meteohub,2013-03-03 01:38:00,
2013-03-02 20:41:00,54.3,37.6,30.05,West,270,4.0,6.0,53,0.00,,,0.21,meteohub,2013-03-03 01:41:00,
2013-03-02 20:42:00,54.3,37.6,30.05,West,270,4.0,6.0,53,0.00,,,0.21,meteohub,2013-03-03 01:42:00,
2013-03-02 20:43:00,54.3,37.0,30.06,NW,315,2.0,6.0,52,0.00,,,0.21,meteohub,2013-03-03 01:43:00,
2013-03-02 20:45:00,54.3,37.0,30.06,North,0,9.0,9.0,52,0.00,,,0.21,meteohub,2013-03-03 01:45:00,
2013-03-02 20:47:00,54.3,37.0,30.05,NE,45,4.0,6.0,52,0.00,,,0.21,meteohub,2013-03-03 01:47:00,
2013-03-02 20:48:00,54.3,37.0,30.06,East,90,5.0,6.0,52,0.00,,,0.21,meteohub,2013-03-03 01:48:00,
2013-03-02 20:50:00,54.3,37.0,30.06,NE,45,2.0,9.0,52,0.00,,,0.21,meteohub,2013-03-03 01:50:00,
2013-03-02 20:53:00,54.5,37.2,30.06,NE,45,10.0,10.0,52,0.00,,,0.21,meteohub,2013-03-03 01:53:00,
2013-03-02 20:54:00,54.5,37.2,30.06,NE,45,10.0,10.0,52,0.00,,,0.21,meteohub,2013-03-03 01:54:00,
2013-03-02 20:56:00,54.5,37.2,30.06,West,270,5.0,9.0,52,0.00,,,0.21,meteohub,2013-03-03 01:56:00,
2013-03-02 20:59:00,54.5,36.7,30.06,NW,315,4.0,9.0,51,0.00,,,0.21,meteohub,2013-03-03 01:59:00,
2013-03-02 21:01:00,54.5,36.7,30.05,West,270,6.0,10.0,51,0.00,,,0.21,meteohub,2013-03-03 02:01:00,
2013-03-02 21:03:00,54.5,37.2,30.06,SW,225,2.0,10.0,52,0.00,,,0.21,meteohub,2013-03-03 02:03:00,
2013-03-02 21:05:00,54.5,37.2,30.05,North,0,3.0,10.0,52,0.00,,,0.21,meteohub,2013-03-03 02:05:00,
2013-03-02 21:07:00,54.5,37.8,30.05,North,0,4.0,10.0,53,0.00,,,0.21,meteohub,2013-03-03 02:07:00,
2013-03-02 21:08:00,54.3,37.6,30.05,South,180,4.0,10.0,53,0.00,,,0.21,meteohub,2013-03-03 02:08:00,
2013-03-02 21:09:00,54.3,37.6,30.05,West,270,5.0,10.0,53,0.00,,,0.21,meteohub,2013-03-03 02:09:00,
2013-03-02 21:10:00,54.3,37.9,30.05,North,0,4.0,7.0,54,0.00,,,0.21,meteohub,2013-03-03 02:10:00,
2013-03-02 21:12:00,54.3,37.9,30.05,SW,225,3.0,7.0,54,0.00,,,0.21,meteohub,2013-03-03 02:12:00,
2013-03-02 21:15:00,54.1,37.9,30.06,NE,45,4.0,7.0,54,0.00,,,0.21,meteohub,2013-03-03 02:15:00,
2013-03-02 21:16:00,54.1,37.9,30.06,North,0,3.0,7.0,54,0.00,,,0.21,meteohub,2013-03-03 02:16:00,
2013-03-02 21:18:00,54.1,37.9,30.06,NW,315,6.0,7.0,54,0.00,,,0.21,meteohub,2013-03-03 02:18:00,
2013-03-02 21:19:00,54.1,37.9,30.06,North,0,2.0,7.0,54,0.00,,,0.21,meteohub,2013-03-03 02:19:00,
2013-03-02 21:20:00,54.1,37.9,30.06,NW,315,2.0,7.0,54,0.00,,,0.21,meteohub,2013-03-03 02:20:00,
2013-03-02 21:23:00,54.0,37.8,30.06,SW,225,3.0,7.0,54,0.00,,,0.21,meteohub,2013-03-03 02:23:00,
2013-03-02 21:25:00,54.0,37.8,30.06,NE,45,3.0,7.0,54,0.00,,,0.21,meteohub,2013-03-03 02:25:00,
2013-03-02 21:27:00,54.0,37.8,30.05,SW,225,2.0,7.0,54,0.00,,,0.21,meteohub,2013-03-03 02:27:00,
2013-03-02 21:28:00,54.0,37.8,30.05,North,0,3.0,7.0,54,0.00,,,0.21,meteohub,2013-03-03 02:28:00,
2013-03-02 21:29:00,54.0,37.8,30.05,North,0,2.0,7.0,54,0.00,,,0.21,meteohub,2013-03-03 02:29:00,
2013-03-02 21:31:00,54.0,37.8,30.06,NW,315,4.0,6.0,54,0.00,,,0.21,meteohub,2013-03-03 02:31:00,
2013-03-02 21:32:00,54.0,37.8,30.05,NW,315,2.0,6.0,54,0.00,,,0.21,meteohub,2013-03-03 02:32:00,
2013-03-02 21:33:00,54.0,37.8,30.05,NW,315,2.0,6.0,54,0.00,,,0.21,meteohub,2013-03-03 02:33:00,
2013-03-02 21:35:00,54.0,37.8,30.05,WNW,293,7.0,7.0,54,0.00,,,0.21,meteohub,2013-03-03 02:35:00,
2013-03-02 21:36:00,54.0,37.8,30.05,NW,315,4.0,5.0,54,0.00,,,0.21,meteohub,2013-03-03 02:36:00,
2013-03-02 21:39:00,54.0,37.8,30.05,SW,225,4.0,5.0,54,0.00,,,0.21,meteohub,2013-03-03 02:39:00,
2013-03-02 21:40:00,54.0,37.8,30.05,NW,315,3.0,5.0,54,0.00,,,0.21,meteohub,2013-03-03 02:40:00,
2013-03-02 21:42:00,54.0,37.8,30.05,North,0,5.0,7.0,54,0.00,,,0.21,meteohub,2013-03-03 02:42:00,
2013-03-02 21:45:00,54.0,37.8,30.05,West,270,3.0,7.0,54,0.00,,,0.21,meteohub,2013-03-03 02:45:00,
2013-03-02 21:47:00,54.0,37.8,30.05,SW,225,2.0,7.0,54,0.00,,,0.21,meteohub,2013-03-03 02:47:00,
2013-03-02 21:50:00,54.0,38.1,30.05,SW,225,4.0,6.0,55,0.00,,,0.21,meteohub,2013-03-03 02:50:00,
2013-03-02 21:51:00,54.0,38.1,30.06,SW,225,4.0,6.0,55,0.00,,,0.21,meteohub,2013-03-03 02:51:00,
2013-03-02 21:53:00,54.0,38.1,30.05,SW,225,4.0,6.0,55,0.00,,,0.21,meteohub,2013-03-03 02:53:00,
2013-03-02 21:55:00,54.0,38.7,30.06,NW,315,2.0,5.0,56,0.00,,,0.21,meteohub,2013-03-03 02:55:00,
2013-03-02 21:56:00,54.0,38.7,30.05,SW,225,3.0,5.0,56,0.00,,,0.21,meteohub,2013-03-03 02:56:00,
2013-03-02 21:57:00,54.0,38.7,30.05,SW,225,3.0,5.0,56,0.00,,,0.21,meteohub,2013-03-03 02:57:00,
2013-03-02 22:00:00,54.0,38.7,30.05,NW,315,3.0,4.0,56,0.00,,,0.21,meteohub,2013-03-03 03:00:00,
2013-03-02 22:02:00,54.0,38.7,30.05,NW,315,4.0,4.0,56,0.00,,,0.21,meteohub,2013-03-03 03:02:00,
2013-03-02 22:03:00,54.0,38.7,30.05,SW,225,8.0,8.0,56,0.00,,,0.21,meteohub,2013-03-03 03:03:00,
2013-03-02 22:08:00,54.1,38.8,30.06,NW,315,3.0,5.0,56,0.00,,,0.21,meteohub,2013-03-03 03:08:00,
2013-03-02 22:09:00,54.0,38.7,30.05,NW,315,3.0,5.0,56,0.00,,,0.21,meteohub,2013-03-03 03:09:00,
2013-03-02 22:10:00,54.0,38.7,30.05,North,0,6.0,6.0,56,0.00,,,0.21,meteohub,2013-03-03 03:10:00,
2013-03-02 22:12:00,54.0,38.7,30.06,NE,45,6.0,8.0,56,0.00,,,0.21,meteohub,2013-03-03 03:12:00,
2013-03-02 22:14:00,54.1,38.3,30.05,North,0,3.0,8.0,55,0.00,,,0.21,meteohub,2013-03-03 03:14:00,
2013-03-02 22:16:00,54.1,38.3,30.05,NE,45,2.0,8.0,55,0.00,,,0.21,meteohub,2013-03-03 03:16:00,
2013-03-02 22:17:00,54.1,38.3,30.05,NW,315,2.0,8.0,55,0.00,,,0.21,meteohub,2013-03-03 03:17:00,
2013-03-02 22:19:00,54.1,38.3,30.05,West,270,5.0,8.0,55,0.00,,,0.21,meteohub,2013-03-03 03:19:00,
2013-03-02 22:20:00,54.1,38.8,30.05,West,270,2.0,7.0,56,0.00,,,0.21,meteohub,2013-03-03 03:20:00,
2013-03-02 22:22:00,54.1,38.8,30.05,East,90,8.0,8.0,56,0.00,,,0.21,meteohub,2013-03-03 03:22:00,
2013-03-02 22:24:00,54.1,38.8,30.05,North,0,4.0,7.0,56,0.00,,,0.21,meteohub,2013-03-03 03:24:00,
2013-03-02 22:25:00,54.1,38.8,30.05,North,0,4.0,8.0,56,0.00,,,0.21,meteohub,2013-03-03 03:25:00,
2013-03-02 22:27:00,54.3,39.4,30.05,North,0,2.0,8.0,57,0.00,,,0.21,meteohub,2013-03-03 03:27:00,
2013-03-02 22:30:00,54.1,39.2,30.05,NE,45,4.0,8.0,57,0.00,,,0.21,meteohub,2013-03-03 03:30:00,
2013-03-02 22:31:00,54.1,39.7,30.05,West,270,6.0,8.0,58,0.00,,,0.21,meteohub,2013-03-03 03:31:00,
2013-03-02 22:36:00,54.1,39.2,30.06,NW,315,5.0,8.0,57,0.00,,,0.21,meteohub,2013-03-03 03:36:00,
2013-03-02 22:37:00,54.1,39.2,30.06,NW,315,2.0,8.0,57,0.00,,,0.21,meteohub,2013-03-03 03:37:00,
2013-03-02 22:41:00,54.1,38.8,30.06,NW,315,4.0,6.0,56,0.00,,,0.21,meteohub,2013-03-03 03:41:00,
2013-03-02 22:42:00,54.1,38.8,30.06,SW,225,3.0,6.0,56,0.00,,,0.21,meteohub,2013-03-03 03:42:00,
2013-03-02 22:44:00,54.1,38.8,30.06,North,0,3.0,6.0,56,0.00,,,0.21,meteohub,2013-03-03 03:44:00,
2013-03-02 22:47:00,54.1,38.8,30.06,North,0,4.0,6.0,56,0.00,,,0.21,meteohub,2013-03-03 03:47:00,
2013-03-02 22:48:00,54.1,38.8,30.06,WSW,248,8.0,8.0,56,0.00,,,0.21,meteohub,2013-03-03 03:48:00,
2013-03-02 22:49:00,54.1,38.8,30.06,WSW,248,8.0,8.0,56,0.00,,,0.21,meteohub,2013-03-03 03:49:00,
2013-03-02 22:52:00,54.1,38.8,30.06,West,270,2.0,8.0,56,0.00,,,0.21,meteohub,2013-03-03 03:52:00,
2013-03-02 22:54:00,54.1,38.8,30.06,NW,315,8.0,8.0,56,0.00,,,0.21,meteohub,2013-03-03 03:54:00,
2013-03-02 22:55:00,54.1,38.8,30.06,West,270,4.0,8.0,56,0.00,,,0.21,meteohub,2013-03-03 03:55:00,
2013-03-02 22:57:00,54.1,38.8,30.06,NE,45,4.0,8.0,56,0.00,,,0.21,meteohub,2013-03-03 03:57:00,
2013-03-02 23:01:00,54.1,38.8,30.06,NW,315,4.0,8.0,56,0.00,,,0.21,meteohub,2013-03-03 04:01:00,
2013-03-02 23:02:00,54.1,38.8,30.05,East,90,6.0,8.0,56,0.00,,,0.21,meteohub,2013-03-03 04:02:00,
2013-03-02 23:03:00,54.1,38.8,30.06,East,90,6.0,8.0,56,0.00,,,0.21,meteohub,2013-03-03 04:03:00,
2013-03-02 23:04:00,54.1,38.8,30.06,NW,315,4.0,8.0,56,0.00,,,0.21,meteohub,2013-03-03 04:04:00,
2013-03-02 23:07:00,54.1,38.8,30.06,North,0,13.0,13.0,56,0.00,,,0.21,meteohub,2013-03-03 04:07:00,
2013-03-02 23:08:00,54.1,38.8,30.05,WNW,293,7.0,8.0,56,0.00,,,0.21,meteohub,2013-03-03 04:08:00,
2013-03-02 23:09:00,54.1,38.3,30.05,SW,225,2.0,8.0,55,0.00,,,0.21,meteohub,2013-03-03 04:09:00,
2013-03-02 23:13:00,54.1,37.9,30.06,SW,225,3.0,13.0,54,0.00,,,0.21,meteohub,2013-03-03 04:13:00,
2013-03-02 23:14:00,54.1,37.9,30.05,NE,45,7.0,13.0,54,0.00,,,0.21,meteohub,2013-03-03 04:14:00,
2013-03-02 23:15:00,54.1,37.9,30.06,NW,315,5.0,13.0,54,0.00,,,0.21,meteohub,2013-03-03 04:15:00,
2013-03-02 23:19:00,54.1,37.9,30.05,SE,135,3.0,13.0,54,0.00,,,0.21,meteohub,2013-03-03 04:19:00,
2013-03-02 23:20:00,54.1,37.9,30.05,North,0,4.0,13.0,54,0.00,,,0.21,meteohub,2013-03-03 04:20:00,
2013-03-02 23:21:00,54.1,37.9,30.05,East,90,4.0,13.0,54,0.00,,,0.21,meteohub,2013-03-03 04:21:00,
2013-03-02 23:26:00,54.1,38.3,30.05,NW,315,4.0,7.0,55,0.00,,,0.21,meteohub,2013-03-03 04:26:00,
2013-03-02 23:27:00,54.1,38.3,30.05,West,270,6.0,7.0,55,0.00,,,0.21,meteohub,2013-03-03 04:27:00,
2013-03-02 23:32:00,54.0,38.1,30.05,NW,315,2.0,6.0,55,0.00,,,0.21,meteohub,2013-03-03 04:32:00,
2013-03-02 23:33:00,54.0,38.1,30.05,North,0,4.0,6.0,55,0.00,,,0.21,meteohub,2013-03-03 04:33:00,
2013-03-02 23:37:00,53.8,38.5,30.05,NW,315,4.0,6.0,56,0.00,,,0.21,meteohub,2013-03-03 04:37:00,
2013-03-02 23:38:00,53.8,38.5,30.05,North,0,2.0,6.0,56,0.00,,,0.21,meteohub,2013-03-03 04:38:00,
2013-03-02 23:39:00,53.8,38.5,30.05,NW,315,3.0,6.0,56,0.00,,,0.21,meteohub,2013-03-03 04:39:00,
2013-03-02 23:43:00,53.6,38.7,30.04,North,0,3.0,6.0,57,0.00,,,0.21,meteohub,2013-03-03 04:43:00,
2013-03-02 23:44:00,53.6,39.2,30.04,NW,315,3.0,6.0,58,0.00,,,0.21,meteohub,2013-03-03 04:44:00,
2013-03-02 23:47:00,53.6,39.2,30.04,North,0,5.0,9.0,58,0.00,,,0.21,meteohub,2013-03-03 04:47:00,
2013-03-02 23:50:00,53.4,39.4,30.04,North,0,2.0,9.0,59,0.00,,,0.21,meteohub,2013-03-03 04:50:00,
2013-03-02 23:51:00,53.2,39.2,30.04,NW,315,3.0,9.0,59,0.00,,,0.21,meteohub,2013-03-03 04:51:00,
2013-03-02 23:52:00,53.2,39.2,30.04,NW,315,3.0,9.0,59,0.00,,,0.21,meteohub,2013-03-03 04:52:00,
2013-03-02 23:55:00,53.1,39.2,30.04,NW,315,2.0,9.0,59,0.00,,,0.21,meteohub,2013-03-03 04:55:00,
2013-03-02 23:57:00,53.1,39.2,30.05,West,270,2.0,5.0,59,0.00,,,0.21,meteohub,2013-03-03 04:57:00,
2013-03-02 23:58:00,53.1,39.2,30.05,West,270,1.0,5.0,59,0.00,,,0.21,meteohub,2013-03-03 04:58:00,